This site uses a module created by best online poker sites.

BSB police report ending March 5, 2018

"03/02/2018","00:33","218CR0005161","WELFARE CHECK","WELFARE CHECK","3901 HARRISON WALMART","",""
"03/02/2018","01:03","218CR0005162","MEDICAL - EMERGENCY","MEDICAL - EMERGENCY","2028 CALIFORNIA","",""
"03/02/2018","02:02","218CR0005164","ALARM - BURGLARY","ALARM - BURGLARY","************","",""
"03/02/2018","02:16","218CR0005165","BURGLARY","BURGLARY","1631 SAMPSON ST","",""
"03/02/2018","02:40","218CR0005166","BUSINESS CHECK","BUSINESS CHECK","1915 DEWEY BLVD LUCKY LILS","",""
"03/02/2018","02:44","218CR0005167","BUSINESS CHECK","BUSINESS CHECK","2711 HARRISON TOWN PUMP","",""
"03/02/2018","02:54","218CR0005168","THEFT","THEFT FROM MOTOR VEHICLE","3552 S MAIN","",""
"03/02/2018","02:57","218CR0005169","T/S","BUY/POSSESS STOLEN PROPERTY","ALUMINUM AND MONTANA","ARREST(s) MADE",""
"03/02/2018","03:27","218CR0005170","ALL OTHER","ALL OTHER","BROADWAY AND ALABAMA","",""
"03/02/2018","03:40","218CR0005171","THEFT","THEFT","1000 BLK W LEXINGTON ST","",""
"03/02/2018","04:18","218CR0005172","ALARM - BURGLARY","ALARM - BURGLARY","************","",""
"03/02/2018","04:34","218CR0005173","DISTURBANCE","DISTURBANCE","1400 HARRISON MT LILS","",""
"03/02/2018","04:54","218CR0005174","WELFARE CHECK","WELFARE CHECK","1835 FLORIDA","",""
"03/02/2018","05:26","218CR0005175","TRAFFIC HAZARD","TRAFFIC HAZARD","I90 MM 232 WB","",""
"03/02/2018","06:15","218CR0005176","ALARM - BURGLARY","ALARM - BURGLARY","************","",""
"03/02/2018","06:31","218CR0005177","MEDICAL - EMERGENCY","MEDICAL - EMERGENCY","725 S DAKOTA ST","",""
"03/02/2018","07:09","218CR0005178","SUSPICIOUS ACTIVITY","SUSPICIOUS ACTIVITY","2002 CAROLINA AVE","",""
"03/02/2018","08:06","218CR0005179","SUSPICIOUS ACTIVITY","SUSPICIOUS ACTIVITY","828 W PARK","",""
"03/02/2018","08:20","218CR0005180","CIVIL PAPER SERVICE","CIVIL PAPER SERVICE","737 W PARK #2","",""
"03/02/2018","08:24","218CR0005181","CIVIL PAPER SERVICE","CIVIL PAPER SERVICE","315 S JACKSON","",""
"03/02/2018","08:25","218CR0005182","ACCIDENT","ACCIDENT","2211 GRAND AVE","",""
"03/02/2018","08:28","218CR0005183","DISTURBANCE","DISTURBANCE","735 S MAIN","",""
"03/02/2018","08:28","218CR0005184","DISTURBANCE","DISTURBANCE","","",""
"03/02/2018","08:38","218CR0005185","MEDICAL - EMERGENCY","MEDICAL - EMERGENCY","1555 HARRISON AVE","",""
"03/02/2018","08:52","218CR0005186","CIVIL PAPER SERVICE","CIVIL PAPER SERVICE","1610 OREGON AVE","",""
"03/02/2018","09:09","218CR0005187","LED BUSINESS","LED BUSINESS","155 W QUARTZ ST","",""
"03/02/2018","09:35","218CR0005188","TRAFFIC","TRAFFIC","","",""
"03/02/2018","09:39","218CR0005189","LOST OR STOLEN PROPERTY","LOST OR STOLEN PROPERTY","1819 REYNOLDS","",""
"03/02/2018","09:42","218CR0005190","LED BUSINESS","LED BUSINESS","401 S ALABAMA","",""
"03/02/2018","09:44","218CR0005191","TRAFFIC HAZARD","TRAFFIC HAZARD","1002 W GALENA","",""
"03/02/2018","09:55","218CR0005192","FIRE - STRUCTURE","FIRE - STRUCTURE","630 W QUARTZ","",""
"03/02/2018","10:03","218CR0005193","ALARM - BURGLARY","ALARM - BURGLARY","************","",""
"03/02/2018","10:11","218CR0005194","MEDICAL - EMERGENCY","MEDICAL - EMERGENCY","40 E GRANITE ST APT 3F","",""
"03/02/2018","10:33","218CR0005195","THEFT","THEFT","2115 FARRAGUT","",""
"03/02/2018","10:44","218CR0005196","DISTURBANCE","DISTURBANCE","400 S CLARK ST","",""
"03/02/2018","10:46","218CR0005197","JUVENILE MISC","JUVENILE MISC","************","",""
"03/02/2018","11:32","218CR0005210","ASSIST OTHER AGENCY","ASSIST OTHER AGENCY","1924 PHILLIPS EMERSON SCHOOL","",""
"03/02/2018","11:35","218CR0005198","SUSPICIOUS ACTIVITY","ABANDONED VEHICLE","PINION AND HARVARD","",""
"03/02/2018","11:44","218CR0005199","WELFARE CHECK","WELFARE CHECK","901 SILVER BOW HOMES","",""
"03/02/2018","12:09","218CR0005201","CITIZEN AID","CITIZEN AID","617 W IRON","",""
"03/02/2018","12:16","218CR0005202","CITIZEN AID","CITIZEN AID","1933 YALE AVE","",""
"03/02/2018","12:38","218CR0005203","VANDALISM/CRIMINAL MISCHIEF","CRIMINAL MISCHIEF","COLORADO ST AND MERCURY ST","",""
"03/02/2018","12:40","218CR0005204","CIVIL STANDBY","CIVIL STANDBY","715 ZARELDA","",""
"03/02/2018","12:53","218CR0005205","SUSPICIOUS ACTIVITY","SUSPICIOUS ACTIVITY","BEHIND KENNEDY","",""
"03/02/2018","13:05","218CR0005206","JUVENILE MISC","POSSESS ALCOHOL OR INTOXICANT","155 W GRANITE BSB COURTHOUSE","ARREST(s) MADE",""
"03/02/2018","13:19","218CR0005207","HARASSMENT","HARASSMENT","2125 HARRISON AVE","",""
"03/02/2018","13:34","218CR0005208","RESTRAINING ORDER VIOLATION","VIOLATION OF PROTECTION ORDER","117 ONEILL","",""
"03/02/2018","13:34","218CR0005209","DISTURBANCE","DISTURBANCE","121074 BROWNS GULCH RD","",""
"03/02/2018","13:42","218CR0005211","SUSPICIOUS ACTIVITY","SUSPICIOUS ACTIVITY","301 W COPPER ST","",""
"03/02/2018","13:45","218CR0005212","DISTURBANCE","DISTURBANCE","2119 JOHNS","",""
"03/02/2018","13:56","218CR0005213","CIVIL STANDBY","CIVIL STANDBY","715 ZARELDA","",""
"03/02/2018","14:11","218CR0005214","THEFT","THEFT, SHOPLIFT","3901 HARRISON AVE","",""
"03/02/2018","14:37","218CR0005215","ALL OTHER","ALL OTHER","1501 4TH ST","",""
"03/02/2018","14:43","218CR0005216","LOST OR STOLEN PROPERTY","THEFT, ALL OTHERS","814 CALEDONIA ST","",""
"03/02/2018","14:45","218CR0005217","JUVENILE MISC","POSSESSION OF TOBACCO PRODUCTS","401 S WYOMING BUTTE HIGH","",""
"03/02/2018","15:12","218CR0005218","ASSIST OTHER AGENCY","ASSIST OTHER AGENCY","1230 RACOON WAY","",""
"03/02/2018","15:20","218CR0005219","ACCIDENT","FOLLOWING TOO CLOSELY","3RD ST AND UTAH AVE","",""
"03/02/2018","15:51","218CR0005220","T/S","SPEEDING","200 BLK S ARIZONA","",""
"03/02/2018","16:02","218CR0005223","T/S","T/S","PARK AND OHIO","",""
"03/02/2018","16:02","218CR0005224","SUSPICIOUS ACTIVITY","SUSPICIOUS ACTIVITY","85 POORMANS RD","",""
"03/02/2018","16:10","218CR0005225","MEDICAL - EMERGENCY","MEDICAL - EMERGENCY","832 S COLORADO ST","",""
"03/02/2018","16:36","218CR0005226","SUSPICIOUS ACTIVITY","SUSPICIOUS ACTIVITY","610 E ALUMINUM","",""
"03/02/2018","16:39","218CR0005227","SUSPICIOUS ACTIVITY","SUSPICIOUS ACTIVITY","2310 PINE","",""
"03/02/2018","17:02","218CR0005228","T/S","T/S","BENNETT AND MAIN","",""
"03/02/2018","17:13","218CR0005229","ACCIDENT","ACCIDENT","HARRISON AND SAMPSON","",""
"03/02/2018","17:26","218CR0005230","T/S","T/S","CASEY AND UTAH","",""
"03/02/2018","17:27","218CR0005231","ACCIDENT-MHP","ACCIDENT-MHP","I15 MM 115 NB","",""
"03/02/2018","17:43","218CR0005232","DISTURBANCE","DISTURBANCE","727 S WYOMING APT B","",""
"03/02/2018","17:44","218CR0005233","T/S","STOP SIGN VIOLATION","700 BLK DEWEY BLVD","",""
"03/02/2018","18:05","218CR0005235","MEDICAL - EMERGENCY","MEDICAL - EMERGENCY","3217 BAYARD ST","",""
"03/02/2018","18:17","218CR0005236","THEFT","THEFT","1131 MISSOURI ST APT D","",""
"03/02/2018","18:22","218CR0005237","ASSIST OTHER AGENCY","ASSIST OTHER AGENCY","I15 MM 135 NB","",""
"03/02/2018","18:59","218CR0005238","WANTED PERSON","WANTED PERSON","************","",""
"03/02/2018","19:35","218CR0005239","UNKNOWN PROBLEM","UNKNOWN PROBLEM","500 BLK S IDAHO","",""
"03/02/2018","20:03","218CR0005240","BUSINESS CHECK","BUSINESS CHECK","1370 HARRISON AVE","",""
"03/02/2018","20:11","218CR0005241","WELFARE CHECK","WELFARE CHECK","3400 HILL AVE #707","",""
"03/02/2018","20:16","218CR0005243","CRIMINAL TRESPASS","CRIMINAL TRESPASS","4937 HOPE RD","",""
"03/02/2018","20:18","218CR0005242","UNKNOWN PROBLEM","UNKNOWN PROBLEM","MINAH ST AND MAIN ST","",""
"03/02/2018","20:19","218CR0005244","CITIZEN AID","CITIZEN AID","225 N ALASKA","",""
"03/02/2018","20:21","218CR0005245","T/S","T/S","PARK ST AND MAIN ST","",""
"03/02/2018","20:35","218CR0005246","WELFARE CHECK","WELFARE CHECK","640 S COLORADO ST","",""
"03/02/2018","20:42","218CR0005247","SUICIDE ATTEMPT/THREAT","SUICIDE ATTEMPT/THREAT","************","",""
"03/02/2018","20:50","218CR0005248","MEDICAL - EMERGENCY","MEDICAL - EMERGENCY","2017 MONROE","",""
"03/02/2018","21:39","218CR0005250","CIVIL STANDBY","CIVIL STANDBY","225 N ALASKA","",""
"03/02/2018","22:01","218CR0005251","ATL","ATL","300 BLK ARIZONA ST","",""
"03/02/2018","22:11","218CR0005252","T/S","T/S @ 600 BLK S MONTANA","600 BLK S MONTANA","",""
"03/02/2018","22:18","218CR0005253","PARKING COMPLAINT","PARKING COMPLAINT","623 W GRANITE","",""
"03/02/2018","22:26","218CR0005254","DISTURBANCE","DISTURBANCE","321 N JACKSON #B","",""
"03/02/2018","22:31","218CR0005256","SUSPICIOUS ACTIVITY","BUY/POSSESS STOLEN PROPERTY","1816 TEXAS","ARREST(s) MADE",""
"03/02/2018","22:32","218CR0005255","ALL OTHER","ALL OTHER","400 S CLARK ST","",""
"03/02/2018","22:48","218CR0005258","ATL","ATL","609 W GALENA","",""
"03/02/2018","22:48","218CR0005257","UNWANTED PERSON","UNWANTED PERSON","************","",""
"03/02/2018","23:06","218CR0005259","UNWANTED PERSON","UNWANTED PERSON","************","",""
"03/02/2018","23:17","218CR0005260","DISTURBANCE-NOISE","DISTURBANCE-NOISE","635 W GRANITE","",""
"03/02/2018","23:23","218CR0005261","DISTURBANCE","DISTURBANCE","2 E GALENA TIMES","",""
"03/02/2018","23:24","218CR0005262","UNKNOWN PROBLEM","UNKNOWN PROBLEM","635 W PARK ST","",""
"03/02/2018","23:35","218CR0005263","MEDICAL - EMERGENCY","MEDICAL - EMERGENCY","1700 HARRISON","",""
"03/02/2018","23:37","218CR0005264","WELFARE CHECK","WELFARE CHECK","1029 NEVADA AVE","",""
"03/02/2018","23:46","218CR0005265","DISTURBANCE","DISTURBANCE","600 BLK PLACER ST","",""
"03/03/2018","00:01","218CR0005266","ALARM - BURGLARY","ALARM - BURGLARY","************","",""
"03/03/2018","00:12","218CR0005267","SUSPICIOUS ACTIVITY","SUSPICIOUS ACTIVITY","2500 BLK HARRISON AV","",""
"03/03/2018","00:18","218CR0005268","T/S","T/S","MAIN AND PACIFIC","",""
"03/03/2018","00:26","218CR0005269","MEDICAL - EMERGENCY","MEDICAL - EMERGENCY","630 1/2 W GRANITE ST","",""
"03/03/2018","00:33","218CR0005270","T/S","T/S","1400 BLK HARRISON AV","",""
"03/03/2018","00:38","218CR0005272","DISTURBANCE-NOISE","DISTURBANCE-NOISE","60 E BROADWAY ACOMA LOUNGE","",""
"03/03/2018","00:38","218CR0005271","T/S","T/S @ GARFIELD ST AND ARGYLE ST","GARFIELD ST AND ARGYLE ST","",""
"03/03/2018","00:44","218CR0005273","T/S","T/S","IRON ST AND MAIN ST","",""
"03/03/2018","01:02","218CR0005274","SUSPICIOUS ACTIVITY","SUSPICIOUS ACTIVITY","CIVIC CENTER N PARKING LOT","",""
"03/03/2018","01:11","218CR0005275","DISTURBANCE","DISTURBANCE","1324 HARRISON AVE BUS DEPOT","",""
"03/03/2018","01:19","218CR0005276","DISTURBANCE","DISTURBANCE","ELIZABETH WARREN AND HOWARD","",""
"03/03/2018","01:26","218CR0005277","SUSPICIOUS ACTIVITY","SUSPICIOUS ACTIVITY","S HARRISON AT THE WALKING TRAI","",""
"03/03/2018","01:50","218CR0005279","INTOXICATED PERSON","INTOXICATED PERSON","531 S MONTANA LUCKY LILS CASIN","",""
"03/03/2018","02:02","218CR0005280","DISTURBANCE","DISTURBANCE","2 E GALENA THE TIMES","",""
"03/03/2018","02:09","218CR0005281","T/S","POSSESSION OF DANGEROUS DRUGS","QUARTZ AND MAIN","ARREST(s) MADE",""
"03/03/2018","02:15","218CR0005282","T/S","DUI DRUGS OR ALCOHOL","WHITMAN AND COBBAN","ARREST(s) MADE",""
"03/03/2018","03:04","218CR0005283","SUSPICIOUS ACTIVITY","SUSPICIOUS ACTIVITY","220 N WYOMING MOTEL 6","",""
"03/03/2018","07:46","218CR0005284","TRAFFIC HAZARD","TRAFFIC HAZARD","762 ELKHORN LANE","",""
"03/03/2018","07:54","218CR0005285","T/S","T/S","ARIZONA AND BROADWAY","",""
"03/03/2018","08:02","218CR0005286","DISTURBANCE","DISTURBANCE","100 GARDENS WY #104","",""
"03/03/2018","08:28","218CR0005289","CIVIL PAPER SERVICE","CIVIL PAPER SERVICE","1819 FLORIDA","",""
"03/03/2018","08:38","218CR0005290","CIVIL PAPER SERVICE","CIVIL PAPER SERVICE","2720 PINE","",""
"03/03/2018","08:50","218CR0005291","CIVIL PAPER SERVICE","CIVIL PAPER SERVICE","3025 EAGLE ST","",""
"03/03/2018","08:53","218CR0005292","UNWANTED PERSON","UNWANTED PERSON","************","",""
"03/03/2018","09:05","218CR0005294","ABANDONED VEHICLE","ABANDONED VEHICLE","3554 SADDLEROCK RD","",""
"03/03/2018","09:14","218CR0005295","ATL","ATL","3100 BLK HARRISON AVE","",""
"03/03/2018","09:26","218CR0005296","ACCIDENT-MHP","ACCIDENT-MHP","I15 MM 115 NB","",""
"03/03/2018","09:26","218CR0005297","ALARM - FIRE","ALARM - FIRE","2609 HARRISON AVE","",""
"03/03/2018","09:32","218CR0005298","THEFT","THEFT","330 W DALY","",""
"03/03/2018","09:37","218CR0005299","ABANDONED VEHICLE","ABANDONED VEHICLE","3900 SADDLE ROCK RD","",""
"03/03/2018","10:32","218CR0005300","LOST OR STOLEN PROPERTY","LOST OR STOLEN PROPERTY","2400 CONTINENTAL DR","",""
"03/03/2018","10:50","218CR0005301","CITIZEN AID","CITIZEN AID","400 S CLARK ST","",""
"03/03/2018","11:07","218CR0005302","FIRE - OTHER","FIRE - OTHER","200 TECHNOLOGY WAY","",""
"03/03/2018","11:21","218CR0005303","CITIZEN AID","CITIZEN AID","313 W QUARTZ ST","",""
"03/03/2018","11:42","218CR0005304","FIRE- GAS ODOR","FIRE- GAS ODOR","55 BASIN CREEK RD","",""
"03/03/2018","12:31","218CR0005305","FRAUD","THEFT, ALL OTHERS","909 DELAWARE","",""
"03/03/2018","12:34","218CR0005306","MISSING PERSON","MISSING PERSON","************","",""
"03/03/2018","12:55","218CR0005307","ASSAULT","ASSAULT","************","",""
"03/03/2018","12:58","218CR0005308","CITIZEN AID","CITIZEN AID","400 S CLARK ST","",""
"03/03/2018","13:13","218CR0005309","ANIMAL COMPLAINT","ANIMAL COMPLAINT","I15 MM 123 WB","",""
"03/03/2018","13:16","218CR0005310","MEDICAL - EMERGENCY","MEDICAL - EMERGENCY","BROADWAY AND MONTANA","",""
"03/03/2018","13:27","218CR0005311","SUSPICIOUS ACTIVITY","SUSPICIOUS ACTIVITY","1301 HARRISON STOKES MARKET","",""
"03/03/2018","13:52","218CR0005312","TRAFFIC","TRAFFIC","","",""
"03/03/2018","14:05","218CR0005313","ALL OTHER","ALL OTHER","400 S CLARK ST","",""
"03/03/2018","14:06","218CR0005314","CRIMINAL TRESPASS","CRIMINAL TRESPASS","1641 GRAND AVE","",""
"03/03/2018","14:27","218CR0005315","ABANDONED VEHICLE","ABANDONED VEHICLE","5100 WARREN AVE #70","",""
"03/03/2018","15:15","218CR0005316","WELFARE CHECK","WELFARE CHECK","104 GARDENS WAY","",""
"03/03/2018","15:17","218CR0005317","ALL OTHER","ALL OTHER","1630 B STREET","",""
"03/03/2018","15:30","218CR0005318","MEDICAL - EMERGENCY","MEDICAL - EMERGENCY","304 HATTIE LOOP","",""
"03/03/2018","15:41","218CR0005319","T/S","CRIMINAL CONTEMPT","3131 HARRISON","ARREST(s) MADE",""
"03/03/2018","15:48","218CR0005320","T/S","T/S","1315 S MONTANA RED ZONE","",""
"03/03/2018","15:56","218CR0005321","MEDICAL - EMERGENCY","MEDICAL - EMERGENCY","140 SWEET MEADOWS ROAD","",""
"03/03/2018","16:21","218CR0005322","PARKING COMPLAINT","PARKING COMPLAINT","820 DEWEY BLVD","",""
"03/03/2018","16:48","218CR0005323","CIVIL PAPER SERVICE","CIVIL PAPER SERVICE","3220 HANNIBAL ST","",""
"03/03/2018","17:18","218CR0005324","ATL","ATL","3110 ARGYLE","",""
"03/03/2018","17:44","218CR0005325","ALL OTHER","ALL OTHER","4655 HARRISON AVE","",""
"03/03/2018","17:49","218CR0005326","SUSPICIOUS ACTIVITY","SUSPICIOUS ACTIVITY","425 E FRONT STREET","",""
"03/03/2018","18:17","218CR0005328","MEDICAL - EMERGENCY","MEDICAL - EMERGENCY","207 W PARK ST","",""
"03/03/2018","18:18","218CR0005329","INTIMIDATION","INTIMIDATION","1042 NEVADA","",""
"03/03/2018","18:40","218CR0005330","BUSINESS CHECK","BUSINESS CHECK","10 BLK W PARK","",""
"03/03/2018","18:52","218CR0005331","T/S","T/S","DELAWARE AVE AND FRONT ST","",""
"03/03/2018","19:05","218CR0005332","ATL","ATL","ELIZABETH WARREN MT HIGHLAND","",""
"03/03/2018","19:15","218CR0005333","SUSPICIOUS ACTIVITY","SUSPICIOUS ACTIVITY","1129 W GRANITE ST","",""
"03/03/2018","19:31","218CR0005334","WELFARE CHECK","WELFARE CHECK","935 W BROADWAY","",""
"03/03/2018","21:06","218CR0005335","UNWANTED PERSON","UNWANTED PERSON","************","",""
"03/03/2018","21:46","218CR0005336","DISTURBANCE","DISTURBANCE","224 W PARK ST","",""
"03/03/2018","22:09","218CR0005337","ASSIST OTHER AGENCY","ASSIST OTHER AGENCY","HARRISON AND PRINCETON","",""
"03/03/2018","22:13","218CR0005338","DISTURBANCE","DISTURBANCE","2317 ELM","",""
"03/03/2018","22:19","218CR0005339","T/S","T/S @ PARK AND EXCLESIOR","PARK AND EXCLESIOR","",""
"03/03/2018","22:23","218CR0005340","BUSINESS CHECK","BUSINESS CHECK","531 S MONTANA ST","",""
"03/03/2018","22:24","218CR0005341","T/S","T/S","GRAND AND CAROLINA","",""
"03/03/2018","22:25","218CR0005342","DISTURBANCE","DISTURBANCE","60 E BROADWAY ACOMA LOUNGE","",""
"03/03/2018","22:47","218CR0005343","ATL","ATL","HOLMES AND ROWE RD","",""
"03/03/2018","22:53","218CR0005344","MEDICAL - EMERGENCY","MEDICAL - EMERGENCY","176 TRINITY LOOP","",""
"03/03/2018","22:54","218CR0005345","T/S","T/S","COLUSA AND DEWEY","",""
"03/03/2018","23:08","218CR0005346","CITIZEN AID","CITIZEN AID","PLATINUM AND EXCELSIOR","",""
"03/03/2018","23:30","218CR0005347","T/S","T/S","FLORENCE AND ARGYLE","",""
"03/03/2018","23:57","218CR0005348","ASSIST OTHER AGENCY","POSSESSION OF DANGEROUS DRUGS","1911 THORNTON","ARREST(s) MADE",""
"03/03/2018","23:59","218CR0005349","ATL","ATL","2900 BLK HARRISON","",""
"03/04/2018","00:06","218CR0005351","PROWLER","PROWLER","1805 B ST","",""
"03/04/2018","00:28","218CR0005352","T/S","T/S","2100 CORNELL QUALITY INN","",""
"03/04/2018","00:36","218CR0005353","FIRE- GAS ODOR","FIRE- GAS ODOR","200 TECHNOLOGY WAY/MSE","",""
"03/04/2018","00:37","218CR0005354","ASSIST OTHER AGENCY","POSSESSION OF DANGEROUS DRUGS","16 W GALENA","ARREST(s) MADE",""
"03/04/2018","00:42","218CR0005355","ACCIDENT- INJURY(MHP)","ACCIDENT- INJURY(MHP)","I90 MM 211 EB","",""
"03/04/2018","01:26","218CR0005356","WELFARE CHECK","WELFARE CHECK","400 BLK E BROADWAY","",""
"03/04/2018","01:55","218CR0005357","STOLEN VEHICLE","STOLEN VEHICLE","100 E BROADWAY ST","",""
"03/04/2018","02:07","218CR0005358","ALL OTHER","ALL OTHER","1 W PARK","",""
"03/04/2018","02:08","218CR0005359","UNWANTED PERSON","POSSESSION OF DANGEROUS DRUGS","2100 CORNELL QUALITY INN","ARREST(s) MADE",""
"03/04/2018","02:10","218CR0005360","MEDICAL - EMERGENCY","MEDICAL - EMERGENCY","IDAHO AND PARK","",""
"03/04/2018","02:26","218CR0005361","ALL OTHER","ALL OTHER","1941 OREGON","",""
"03/04/2018","03:09","218CR0005362","ASSIST OTHER AGENCY","ASSIST OTHER AGENCY","GRAND AND THOMAS","",""
"03/04/2018","03:17","218CR0005363","LOST OR STOLEN PROPERTY","LOST OR STOLEN PROPERTY","1124 IOWA","",""
"03/04/2018","03:28","218CR0005364","T/S","CRIMINAL CONTEMPT","2000 BLK HARRISON AVE","ARREST(s) MADE",""
"03/04/2018","04:24","218CR0005365","DRUGS","DRUGS","************","",""
"03/04/2018","04:44","218CR0005366","HARASSMENT","HARASSMENT","2126 PHILLIPS AVE","",""
"03/04/2018","05:24","218CR0005367","MEDICAL - EMERGENCY","MEDICAL - EMERGENCY","2310 COBBAN BSW THRIFT STORE","",""
"03/04/2018","05:36","218CR0005368","UNKNOWN PROBLEM","UNKNOWN PROBLEM","1325 W QUARTZ HILLTOP APTS","",""
"03/04/2018","06:12","218CR0005369","ALARM - BURGLARY","ALARM - BURGLARY","************","",""
"03/04/2018","07:44","218CR0005370","ASSIST OTHER AGENCY","ASSIST OTHER AGENCY","I15 MM130 N BND","",""
"03/04/2018","07:57","218CR0005371","SUSPICIOUS ACTIVITY","SUSPICIOUS ACTIVITY","1042 W PARK","",""
"03/04/2018","08:31","218CR0005372","MEDICAL - EMERGENCY","MEDICAL - EMERGENCY","212 SILVERBOW HOMES","",""
"03/04/2018","10:35","218CR0005373","SUSPICIOUS ACTIVITY","SUSPICIOUS ACTIVITY","12 LAIRD ST","",""
"03/04/2018","10:57","218CR0005374","MEDICAL - EMERGENCY","MEDICAL - EMERGENCY","721 HOBSON APT 4","",""
"03/04/2018","11:30","218CR0005375","HARASSMENT","HARASSMENT","846 S MAIN ST","",""
"03/04/2018","11:53","218CR0005376","UNWANTED PERSON","UNWANTED PERSON","************","",""
"03/04/2018","12:18","218CR0005377","ACCIDENT","ACCIDENT","I15 MM 99 SB","",""
"03/04/2018","12:40","218CR0005378","CITIZEN AID","CITIZEN AID","1326 MISSOURI AVE","",""
"03/04/2018","12:46","218CR0005379","JUVENILE MISC","JUVENILE MISC","************","",""
"03/04/2018","12:56","218CR0005380","THEFT","THEFT","810 1/2 W MERCURY","",""
"03/04/2018","13:16","218CR0005381","WELFARE CHECK","WELFARE CHECK","100 BLK E GALENA","",""
"03/04/2018","13:33","218CR0005382","THEFT","THEFT","3901 HARRISON AVE","",""
"03/04/2018","13:35","218CR0005383","ALL OTHER","ALL OTHER","436 S MAIN ST APT A","",""
"03/04/2018","13:51","218CR0005384","THEFT","THEFT, SHOPLIFT","3901 HARRISON AVE","",""
"03/04/2018","13:51","218CR0005385","SUICIDE ATTEMPT/THREAT","ASSAULT PEACE OFFC -  NO INJ","1152 W SILVER","ARREST(s) MADE",""
"03/04/2018","14:24","218CR0005386","ATL","ATL","PLATINUM AND MONTANA","",""
"03/04/2018","14:36","218CR0005387","THEFT","POSSESSION OF DANGEROUS DRUGS","3901 HARRISON AVE","ARREST(s) MADE",""
"03/04/2018","14:55","218CR0005388","T/S","T/S","3541 HARRISON AVE","",""
"03/04/2018","15:33","218CR0005389","THEFT","THEFT","520 HOLMES","",""
"03/04/2018","15:36","218CR0005390","FRAUD","FRAUD","229 S WASHINGTON","",""
"03/04/2018","16:10","218CR0005391","THEFT","THEFT, SHOPLIFT","3901 HARRISON AVE","",""
"03/04/2018","17:01","218CR0005392","MEDICAL - EMERGENCY","MEDICAL - EMERGENCY","105 RAMPART DR APT 106","",""
"03/04/2018","17:05","218CR0005393","BUSINESS CHECK","BUSINESS CHECK","1370 HARRISON AVE","",""
"03/04/2018","17:07","218CR0005394","ACCIDENT","ACCIDENT","I90 MM 228 WB","",""
"03/04/2018","17:44","218CR0005395","MEDICAL - EMERGENCY","MEDICAL - EMERGENCY","50 W BROADWAY ST","",""
"03/04/2018","18:08","218CR0005396","ASSIST OTHER AGENCY","ASSIST OTHER AGENCY","I90 MM 213 W BND","",""
"03/04/2018","18:10","218CR0005397","MEDICAL - EMERGENCY","MEDICAL - EMERGENCY","100 GARDENS WAY #101","",""
"03/04/2018","19:07","218CR0005398","PARKING COMPLAINT","PARKING COMPLAINT","217 W PARK ST","",""
"03/04/2018","19:09","218CR0005399","ACCIDENT","ACCIDENT","2905 HARRISON AVE","",""
"03/04/2018","19:36","218CR0005400","LOST OR STOLEN PROPERTY","THEFT FROM BUILDINGS","2540 FLORAL BLVD","",""
"03/04/2018","19:50","218CR0005401","UNWANTED PERSON","FAILURE TO DISPERSE","1203 HOWARD","ARREST(s) MADE",""
"03/04/2018","19:55","218CR0005402","FIRE - OTHER","FIRE - OTHER","118 N ALABAMA","",""
"03/04/2018","21:19","218CR0005403","T/S","T/S","GEORGE ST AND MONTANA ST","",""
"03/04/2018","21:52","218CR0005404","SUSPICIOUS ACTIVITY","BURGLARY, RESIDENCE","2010 GARRISON AVE","",""
"03/04/2018","22:28","218CR0005405","T/S","T/S","COBBAN AND ARIZONA","",""
"03/04/2018","22:51","218CR0005406","OPEN BUILDING","OPEN BUILDING","2012 HARVARD","",""
"03/04/2018","23:03","218CR0005407","BUSINESS CHECK","BUSINESS CHECK","2711 HARRISON","",""
"03/04/2018","23:05","218CR0005408","BUSINESS CHECK","BUSINESS CHECK","1370 HARRISON","",""
"03/04/2018","23:09","218CR0005409","BUSINESS CHECK","BUSINESS CHECK","1915 DEWEY LUCKY LILS CASINO","",""
"03/04/2018","23:10","218CR0005410","BUSINESS CHECK","BUSINESS CHECK","2000 DEWEY BLVD DOTTYS CASINO","",""
"03/04/2018","23:15","218CR0005411","BUSINESS CHECK","BUSINESS CHECK","LUCKY LOGGERS","",""
"03/04/2018","23:17","218CR0005412","HARASSMENT","HARASSMENT","2315 WALNUT","",""
"03/04/2018","23:47","218CR0005413","DISTURBANCE","DISTURBANCE","60 E BROADWAY ACOMA LOUNGE","",""
"03/04/2018","23:50","218CR0005414","ALARM - BURGLARY","ALARM - BURGLARY","************","",""
"03/05/2018","00:15","218CR0005415","DISTURBANCE","PFMA - REASONABLE APPREHENSION","5 LAIRD ST","ARREST(s) MADE",""
"03/05/2018","01:29","218CR0005416","MEDICAL - EMERGENCY","MEDICAL - EMERGENCY","2121 LOCUST","",""
"03/05/2018","02:31","218CR0005417","DISTURBANCE","DISTURBANCE","936 IOWA","",""
"03/05/2018","02:34","218CR0005418","SUSPICIOUS ACTIVITY","SUSPICIOUS ACTIVITY","2929 HARRISON SUPER 8 MOTEL","",""
"03/05/2018","03:37","218CR0005419","MEDICAL - EMERGENCY","MEDICAL - EMERGENCY","2900 ELM BEE HIVE HOMES","",""
"03/05/2018","03:51","218CR0005420","DISTURBANCE-NOISE","DISTURBANCE-NOISE","614 W PARK","",""
"03/05/2018","03:55","218CR0005421","MEDICAL - EMERGENCY","MEDICAL - EMERGENCY","25 W ALUMINUM","",""
"03/05/2018","04:05","218CR0005422","DISTURBANCE-NOISE","DISTURBANCE-NOISE","100 BLK W GRANITE S ALLEY","",""
"03/05/2018","05:51","218CR0005423","T/S","T/S @ I 90 W BOUND WEIGHT STATION","I 90 W BOUND WEIGHT STATION","",""
"03/05/2018","07:39","218CR0005424","T/S","T/S @ ","","",""
"03/05/2018","07:39","218CR0005425","T/S","T/S @ PARK AND MONTANA","PARK AND MONTANA","",""
 

BSB police report ending March 2, 2018

"03/01/2018","01:12","218CR0005090","THEFT","THEFT, SHOPLIFT","3901 HARRISON WALMART","ARREST(s) MADE",""
"03/01/2018","01:33","218CR0005091","WELFARE CHECK","WELFARE CHECK","MAIN AND SECOND","",""
"03/01/2018","02:06","218CR0005092","ACCIDENT - INJURY","CRIMINAL ENDANGERMENT","600 BLK S MAIN","ARREST(s) MADE",""
"03/01/2018","04:32","218CR0005093","MEDICAL - EMERGENCY","MEDICAL - EMERGENCY","24 E COPPER HAYES MORRIS HOUSE","",""
"03/01/2018","06:59","218CR0005094","ATL","ATL","I90 MM 236 WB","",""
"03/01/2018","07:24","218CR0005095","ASSIST OTHER AGENCY","ASSIST OTHER AGENCY","BASIN CREEK RD","",""
"03/01/2018","07:47","218CR0005096","SUSPICIOUS ACTIVITY","SUSPICIOUS ACTIVITY","SADDLE ROCK // EAST RIDGE","",""
"03/01/2018","07:50","218CR0005097","TRAFFIC","TRAFFIC","SAGE AND WARREN","",""
"03/01/2018","08:33","218CR0005098","CIVIL PAPER SERVICE","CIVIL PAPER SERVICE","1819 FLORIDA","",""
"03/01/2018","08:47","218CR0005099","THEFT","THEFT, ALL OTHERS","1499 CONTINENTAL","",""
"03/01/2018","08:50","218CR0005100","SUSPICIOUS ACTIVITY","SUSPICIOUS ACTIVITY","1259 E SECOND","",""
"03/01/2018","08:58","218CR0005101","DETENTION BUSINESS","DETENTION BUSINESS","************","",""
"03/01/2018","09:11","218CR0005102","HARASSMENT","HARASSMENT","106 W BROADWAY ST","",""
"03/01/2018","09:18","218CR0005103","LED BUSINESS","LED BUSINESS","155 W GRANITE ST","",""
"03/01/2018","09:49","218CR0005104","JUVENILE MISC","JUVENILE MISC","************","",""
"03/01/2018","10:03","218CR0005105","JUVENILE MISC","JUVENILE MISC","************","",""
"03/01/2018","10:04","218CR0005106","ASSIST OTHER AGENCY","ASSIST OTHER AGENCY","31 W LAPLATTE","",""
"03/01/2018","10:11","218CR0005107","VANDALISM/CRIMINAL MISCHIEF","VANDALISM/CRIMINAL MISCHIEF","2870 SILVERBOW BLVD","",""
"03/01/2018","11:04","218CR0005108","ALARM - FIRE","ALARM - FIRE","1301 W PARK ST","",""
"03/01/2018","11:30","218CR0005110","THEFT","THEFT, ALL OTHERS","2219 SILVERBOW BLVD","",""
"03/01/2018","11:40","218CR0005111","ATL","ATL","BUTTE","",""
"03/01/2018","11:45","218CR0005112","FIRE - OTHER","FIRE - OTHER","3220 HANNIBAL","",""
"03/01/2018","11:59","218CR0005116","UNWANTED PERSON","UNWANTED PERSON","************","",""
"03/01/2018","12:18","218CR0005117","ABANDONED VEHICLE- PRIVATE PRO","ABANDONED VEHICLE- PRIVATE PRO","1900 S MONTANA ST","",""
"03/01/2018","12:28","218CR0005118","CIVIL PAPER SERVICE","CIVIL PAPER SERVICE","3400 HILL APT 407","",""
"03/01/2018","12:35","218CR0005119","RESTRAINING ORDER VIOLATION","RESTRAINING ORDER VIOLATION","************","",""
"03/01/2018","12:41","218CR0005120","ALARM - MEDICAL","ALARM - MEDICAL","************","",""
"03/01/2018","12:48","218CR0005121","SUSPICIOUS ACTIVITY","SUSPICIOUS ACTIVITY","3655 HARRISON AVE","",""
"03/01/2018","12:57","218CR0005122","ACCIDENT - INJURY","ACCIDENT - INJURY","2500 BLK HARRISON","",""
"03/01/2018","13:27","","","","","",""
"03/01/2018","13:37","218CR0005124","ACCIDENT","ACCIDENT","2210 MILES CROSSING","",""
"03/01/2018","13:48","218CR0005125","ATL","ATL","436 S CLARK","",""
"03/01/2018","14:06","218CR0005126","STOLEN VEHICLE","MOTOR VEHICLE THEFT","3939 HARRISON AVE","",""
"03/01/2018","14:07","218CR0005127","THEFT","THEFT","111 RED MOUNTAIN VIEW","",""
"03/01/2018","14:10","218CR0005128","ALL OTHER","THEFT OF SERVICES","8 W PARK","ARREST(s) MADE",""
"03/01/2018","14:43","218CR0005129","FIRE - OTHER","FIRE - OTHER","411 E FRONT ST","",""
"03/01/2018","15:04","218CR0005130","CIVIL STANDBY","CIVIL STANDBY","225 N ALASKA ST","",""
"03/01/2018","15:11","218CR0005131","JUVENILE MISC","JUVENILE MISC","************","",""
"03/01/2018","15:17","218CR0005132","TRAFFIC HAZARD","TRAFFIC HAZARD","1700 CIVIC CENTER ROAD","",""
"03/01/2018","15:35","218CR0005133","JUVENILE MISC","JUVENILE MISC","************","",""
"03/01/2018","15:38","218CR0005134","T/S","T/S @ MONTANA AND PORPHYRY","MONTANA AND PORPHYRY","",""
"03/01/2018","15:57","218CR0005137","HIT AND RUN","HIT AND RUN","CIVIC CENTER","",""
"03/01/2018","16:03","218CR0005138","SUICIDE ATTEMPT/THREAT","SUICIDE ATTEMPT/THREAT","************","",""
"03/01/2018","16:27","218CR0005139","CIVIL STANDBY","CIVIL STANDBY","1305 STUART","",""
"03/01/2018","16:46","218CR0005140","T/S","T/S @ MONTANA AND PARK ST","MONTANA AND PARK ST","",""
"03/01/2018","17:03","218CR0005141","T/S","T/S @ MONTANA ST AND IRON","MONTANA ST AND IRON","",""
"03/01/2018","17:06","218CR0005142","MEDICAL - EMERGENCY","MEDICAL - EMERGENCY","1806 C STREET","",""
"03/01/2018","17:09","218CR0005143","MEDICAL - EMERGENCY","MEDICAL - EMERGENCY","3016 PAXSON AVE","",""
"03/01/2018","17:23","218CR0005144","THEFT","THEFT","814 W MERCURY","",""
"03/01/2018","17:25","218CR0005145","T/S","T/S @ WYOMING ST AND FRONT ST","WYOMING ST AND FRONT ST","",""
"03/01/2018","17:35","218CR0005146","ALL OTHER","UNAUTHORIZED USE OF MOTOR VEH","1939 PHILLIPS","",""
"03/01/2018","17:39","218CR0005147","T/S","T/S @ MONTANA AND MERCURY","MONTANA AND MERCURY","",""
"03/01/2018","17:45","218CR0005148","ACCIDENT","ACCIDENT","MONTANA ST AND PARK ST","",""
"03/01/2018","18:36","218CR0005149","ATL","ATL","550 E MERCURY MAC CENTER","",""
"03/01/2018","18:47","218CR0005150","ALL OTHER","ALL OTHER","400 S CLARK ST","",""
"03/01/2018","19:37","218CR0005151","ATL","ATL","531 S MONTANA ST","",""
"03/01/2018","20:21","218CR0005152","DISTURBANCE","DISTURBANCE","1005 W PARK ST","",""
"03/01/2018","20:22","218CR0005153","ACCIDENT- INJURY(MHP)","ACCIDENT- INJURY(MHP)","I15 MM 113 SB","",""
"03/01/2018","20:26","218CR0005154","HIT AND RUN","HIT AND RUN","400 BLK S MAIN ST","",""
"03/01/2018","20:44","218CR0005155","ALL OTHER","ALL OTHER","4034 ELIZABETH WARREN #109","",""
"03/01/2018","21:00","218CR0005156","CHILD ABUSE","CHILD ABUSE","************","",""
"03/01/2018","22:01","218CR0005157","DISTURBANCE","DISTURBANCE","2025 GAYLORD","",""
"03/01/2018","22:25","218CR0005158","TRAFFIC HAZARD","TRAFFIC HAZARD","3900 BLK HARRISON","",""
"03/01/2018","22:41","218CR0005159","BUSINESS CHECK","BUSINESS CHECK","1370 HARRISON TOWN PUMP","",""
"03/01/2018","22:47","218CR0005160","ACCIDENT","AGGRAVATED DUI","CONTINENAL DR AND TROTTER","ARREST(s) MADE",""
"03/02/2018","00:33","218CR0005161","WELFARE CHECK","WELFARE CHECK","3901 HARRISON WALMART","",""
"03/02/2018","01:03","218CR0005162","MEDICAL - EMERGENCY","MEDICAL - EMERGENCY","2028 CALIFORNIA","",""
"03/02/2018","02:02","218CR0005164","ALARM - BURGLARY","ALARM - BURGLARY","************","",""
"03/02/2018","02:16","218CR0005165","BURGLARY","BURGLARY","1631 SAMPSON ST","",""
"03/02/2018","02:40","218CR0005166","BUSINESS CHECK","BUSINESS CHECK","1915 DEWEY BLVD LUCKY LILS","",""
"03/02/2018","02:44","218CR0005167","BUSINESS CHECK","BUSINESS CHECK","2711 HARRISON TOWN PUMP","",""
"03/02/2018","02:54","218CR0005168","THEFT","THEFT FROM MOTOR VEHICLE","3552 S MAIN","",""
"03/02/2018","02:57","218CR0005169","T/S","BUY/POSSESS STOLEN PROPERTY","ALUMINUM AND MONTANA","ARREST(s) MADE",""
"03/02/2018","03:27","218CR0005170","ALL OTHER","ALL OTHER","BROADWAY AND ALABAMA","",""
"03/02/2018","03:40","218CR0005171","THEFT","THEFT","1000 BLK W LEXINGTON ST","",""
"03/02/2018","04:18","218CR0005172","ALARM - BURGLARY","ALARM - BURGLARY","************","",""
"03/02/2018","04:34","218CR0005173","DISTURBANCE","DISTURBANCE","1400 HARRISON MT LILS","",""
"03/02/2018","04:54","218CR0005174","WELFARE CHECK","WELFARE CHECK","1835 FLORIDA","",""
"03/02/2018","05:26","218CR0005175","TRAFFIC HAZARD","TRAFFIC HAZARD","I90 MM 232 WB","",""
"03/02/2018","06:15","218CR0005176","ALARM - BURGLARY","ALARM - BURGLARY","************","",""
"03/02/2018","06:31","218CR0005177","MEDICAL - EMERGENCY","MEDICAL - EMERGENCY","725 S DAKOTA ST","",""
"03/02/2018","07:09","218CR0005178","SUSPICIOUS ACTIVITY","SUSPICIOUS ACTIVITY","2002 CAROLINA AVE","",""
 

BSB police report ending March 1, 2018

"02/28/2018","00:02","218CR0005006","ASSAULT","ASSAULT","************","",""
"02/28/2018","00:07","218CR0005007","MAN WITH A GUN","MAN WITH A GUN","************","",""
"02/28/2018","00:17","218CR0005008","ACCIDENT","IMMEDIATE NOTIFICATION OF ACC","420 S IDAHO","",""
"02/28/2018","00:32","218CR0005009","MAN WITH A GUN","MAN WITH A GUN","************","",""
"02/28/2018","00:36","218CR0005010","MEDICAL - ASSIST","MEDICAL - ASSIST","************","",""
"02/28/2018","00:37","218CR0005011","ATL","ATL","24 E COPPER HAYES MORRIS HSE","",""
"02/28/2018","00:51","218CR0005012","SUSPICIOUS ACTIVITY","SUSPICIOUS ACTIVITY","5101 S WARREN AVE","",""
"02/28/2018","01:21","218CR0005013","CITIZEN AID","CITIZEN AID","DAKOTA AND FRONT","",""
"02/28/2018","01:41","218CR0005014","ATL","ATL","CONTINENTAL DR AND HANNIBAL ST","",""
"02/28/2018","01:52","218CR0005015","SUSPICIOUS ACTIVITY","SUSPICIOUS ACTIVITY","C/O MCDC 2500 CONTINENTAL DR","",""
"02/28/2018","03:10","218CR0005016","SUSPICIOUS ACTIVITY","SUSPICIOUS ACTIVITY","26 LAIRD","",""
"02/28/2018","04:00","218CR0005017","SUICIDE ATTEMPT/THREAT","SUICIDE ATTEMPT/THREAT","************","",""
"02/28/2018","04:04","218CR0005018","DOMESTIC ABUSE","DOMESTIC ABUSE","************","",""
"02/28/2018","05:34","218CR0005019","MEDICAL - EMERGENCY","MEDICAL - EMERGENCY","725 S DAKOTA","",""
"02/28/2018","05:35","218CR0005020","SUSPICIOUS ACTIVITY","SUSPICIOUS ACTIVITY","COLUMBUS PLAZA 700","",""
"02/28/2018","05:49","218CR0005021","CITIZEN AID","CITIZEN AID","714 E SECOND","",""
"02/28/2018","06:29","218CR0005022","DETENTION BUSINESS","DETENTION BUSINESS","************","",""
"02/28/2018","06:50","218CR0005023","SUSPICIOUS ACTIVITY","SUSPICIOUS ACTIVITY","840 S MONTANA","",""
"02/28/2018","06:54","218CR0005024","MEDICAL - EMERGENCY","MEDICAL - EMERGENCY","634 W BROADWAY","",""
"02/28/2018","07:11","218CR0005025","THEFT","THEFT, SHOPLIFT","4701 HARRISON AVE","",""
"02/28/2018","07:25","218CR0005026","MEDICAL - EMERGENCY","MEDICAL - EMERGENCY","2028 CALIFORNIA","",""
"02/28/2018","07:26","218CR0005027","SUSPICIOUS ACTIVITY","SUSPICIOUS ACTIVITY","2900 BLK HARRISON","",""
"02/28/2018","07:44","218CR0005028","T/S","T/S @ 3000 BLK CONTINENTIAL DR","3000 BLK CONTINENTIAL DR","",""
"02/28/2018","08:09","218CR0005029","T/S","T/S","DUNDEE AND HARRISON AV","",""
"02/28/2018","08:09","218CR0005030","THEFT","THEFT","1003 MARYLAND","",""
"02/28/2018","08:19","218CR0005031","THEFT","THEFT","5501 CONTINENTAL DRIVE","",""
"02/28/2018","08:26","218CR0005032","CIVIL PAPER SERVICE","CIVIL PAPER SERVICE","932 S UTAH","",""
"02/28/2018","08:39","218CR0005033","T/S","NO LIABILITY INSURANCE IN EFF.","MAIN ST AND SILVER ST","",""
"02/28/2018","08:42","218CR0005034","DETENTION BUSINESS","DETENTION BUSINESS","************","",""
"02/28/2018","09:21","218CR0005035","ACCIDENT","ACCIDENT","100 BLK W GRANITE","",""
"02/28/2018","09:28","218CR0005036","WELFARE CHECK","WELFARE CHECK","518 S IDAHO","",""
"02/28/2018","09:29","218CR0005037","FIRE - OTHER","FIRE - OTHER","810 W MERCURY","",""
"02/28/2018","09:55","218CR0005038","CRIMINAL TRESPASS","CRIMINAL TRESPASS","1027 1/2 E FRONT ST","",""
"02/28/2018","10:22","218CR0005039","TRAFFIC HAZARD","TRAFFIC HAZARD","GEORGE AND KAW","",""
"02/28/2018","10:25","218CR0005040","FIRE- GAS ODOR","FIRE- GAS ODOR","200 TECHNOLOGY WY","",""
"02/28/2018","10:39","218CR0005042","VEHICLE INSPECTION","VEHICLE INSPECTION","225 N ALASKA","",""
"02/28/2018","11:15","218CR0005043","MAN WITH A GUN","CRIMINAL ENDANGERMENT","43 W LAPLATTE","",""
"02/28/2018","11:30","218CR0005045","CITIZEN AID","CITIZEN AID","106 W BROADWAY ST","",""
"02/28/2018","12:08","218CR0005047","FRAUD","FRAUD","1247 1/2 QUARTZ","",""
"02/28/2018","12:11","218CR0005048","THEFT","BURGLARY, RESIDENCE","910 EVANS APT A2","",""
"02/28/2018","12:37","218CR0005049","T/S","T/S @ PLATINUM AND MONTANA","PLATINUM AND MONTANA","",""
"02/28/2018","13:04","218CR0005050","SEXUAL ASSAULT","SEXUAL ASSAULT","************","",""
"02/28/2018","13:09","218CR0005051","LED BUSINESS","LED BUSINESS","155 W GRANITE","",""
"02/28/2018","13:16","218CR0005052","MEDICAL - EMERGENCY","MEDICAL - EMERGENCY","GRANITE ST AND MAIN ST","",""
"02/28/2018","13:22","218CR0005053","WELFARE CHECK","WELFARE CHECK","1515 OREGON #209","",""
"02/28/2018","13:25","218CR0005054","SUSPICIOUS ACTIVITY","SUSPICIOUS ACTIVITY","PARK AND UTAH","",""
"02/28/2018","13:27","218CR0005055","SUSPICIOUS ACTIVITY","SUSPICIOUS ACTIVITY","DEWEY AND UTAH","",""
"02/28/2018","13:46","218CR0005056","T/S","T/S @ 1900 BLK PHILLIPS AVE","1900 BLK PHILLIPS AVE","",""
"02/28/2018","14:04","218CR0005057","ASSIST OTHER AGENCY","ASSIST OTHER AGENCY","125 BASIN CR RD FED EX","",""
"02/28/2018","14:34","218CR0005058","INFORMATION ONLY","INFORMATION ONLY","401 S WYOMING","",""
"02/28/2018","14:56","218CR0005059","STOLEN VEHICLE","STOLEN VEHICLE","1007 OREGON","",""
"02/28/2018","15:01","218CR0005060","JUVENILE MISC","JUVENILE MISC","************","",""
"02/28/2018","15:08","218CR0005061","MEDICAL - ASSIST","MEDICAL - ASSIST","************","",""
"02/28/2018","15:12","218CR0005062","THEFT","THEFT, ALL OTHERS","1121 NEVADA","",""
"02/28/2018","15:19","218CR0005063","T/S","T/S","ROOSEVELT ST AND BUSCH ST","",""
"02/28/2018","15:48","218CR0005064","SEXUAL ASSAULT","SEXUAL ASSAULT","************","",""
"02/28/2018","16:01","218CR0005065","ALL OTHER","ALL OTHER","225 N ALASKA ST","",""
"02/28/2018","16:35","218CR0005067","STOLEN VEHICLE","STOLEN VEHICLE","244 BEACON ROAD","",""
"02/28/2018","16:35","218CR0005068","T/S","T/S @ MONTANA AND BROADWAY","MONTANA AND BROADWAY","",""
"02/28/2018","17:15","218CR0005069","HIT AND RUN","HIT AND RUN","225 N ALASKA ST","",""
"02/28/2018","17:21","218CR0005070","WANTED PERSON","WANTED PERSON","************","",""
"02/28/2018","17:23","218CR0005071","ALARM - BURGLARY","ALARM - BURGLARY","************","",""
"02/28/2018","17:29","218CR0005072","MEDICAL - EMERGENCY","MEDICAL - EMERGENCY","2911 DEXTER","",""
"02/28/2018","17:35","218CR0005073","HIT AND RUN","HIT AND RUN","HARRISON AVE AND HOLMES AVE","",""
"02/28/2018","17:51","218CR0005074","SUSPICIOUS ACTIVITY","SUSPICIOUS ACTIVITY","1628 HOBSON","",""
"02/28/2018","18:55","218CR0005075","T/S","T/S","CONTINENTAL AND DEXTER","",""
"02/28/2018","19:17","218CR0005076","FIRE- GAS ODOR","FIRE- GAS ODOR","3540 S DAKOTA","",""
"02/28/2018","19:46","218CR0005077","HARASSMENT","PRIVACY IN COMMUNICATION","605 W QUARTZ","",""
"02/28/2018","19:48","218CR0005078","W/PRISONER","W/PRISONER","315 E ALUMINUM","",""
"02/28/2018","19:55","218CR0005079","T/S","T/S @ CHICAGO AND SHEILDS","CHICAGO AND SHEILDS","",""
"02/28/2018","20:18","218CR0005080","ALL OTHER","ALL OTHER","713 S MONTANA","",""
"02/28/2018","20:24","218CR0005081","T/S","T/S @ MONTANA AND SECOND","MONTANA AND SECOND","",""
"02/28/2018","20:29","218CR0005082","SUSPICIOUS ACTIVITY","SUSPICIOUS ACTIVITY","EDDIES MOTEL","",""
"02/28/2018","20:47","218CR0005083","T/S","T/S","MONTANA ST AND IRON","",""
"02/28/2018","21:14","218CR0005084","T/S","T/S @ MONTANA ST AND ALUMINUM ST","MONTANA ST AND ALUMINUM ST","",""
"02/28/2018","21:35","218CR0005085","CHILD ABUSE","CHILD ABUSE","************","",""
"02/28/2018","21:50","218CR0005086","T/S","T/S","FARRELL ST AND HAYES AVE","",""
"02/28/2018","22:23","218CR0005087","T/S","POSSESSION OF DANGEROUS DRUGS","IOWA AND FRONT","ARREST(s) MADE",""
"02/28/2018","22:26","218CR0005088","HIT AND RUN","HIT AND RUN","205 W GRANITE APT 302","",""
"02/28/2018","23:10","218CR0005089","MEDICAL - EMERGENCY","MEDICAL - EMERGENCY","13 SUNVIEW TERRACE","",""
"03/01/2018","01:12","218CR0005090","THEFT","THEFT, SHOPLIFT","3901 HARRISON WALMART","ARREST(s) MADE",""
"03/01/2018","01:33","218CR0005091","WELFARE CHECK","WELFARE CHECK","MAIN AND SECOND","",""
"03/01/2018","02:06","218CR0005092","ACCIDENT - INJURY","CRIMINAL ENDANGERMENT","600 BLK S MAIN","ARREST(s) MADE",""
"03/01/2018","04:32","218CR0005093","MEDICAL - EMERGENCY","MEDICAL - EMERGENCY","24 E COPPER HAYES MORRIS HOUSE","",""
"03/01/2018","06:59","218CR0005094","ATL","ATL","I90 MM 236 WB","",""
 

BSB police report ending February 28, 2018

"02/27/2018","00:00","218CR0004918","T/S","OPERATING WITHOUT CURRENT REGI","700 BLK PLR","",""
"02/27/2018","00:14","218CR0004919","WELFARE CHECK","WELFARE CHECK","1852 FLORIDA","",""
"02/27/2018","00:32","218CR0004920","ALARM - BURGLARY","ALARM - BURGLARY","************","",""
"02/27/2018","00:44","218CR0004921","MEDICAL - EMERGENCY","MEDICAL - EMERGENCY","18 N CLARK","",""
"02/27/2018","00:47","218CR0004922","SUSPICIOUS ACTIVITY","SUSPICIOUS ACTIVITY","300 BLK W MERCURY","",""
"02/27/2018","01:05","218CR0004923","BUSINESS CHECK","BUSINESS CHECK","2711 HARRISON","",""
"02/27/2018","02:03","218CR0004924","BUSINESS CHECK","BUSINESS CHECK","531 S MONTANA","",""
"02/27/2018","02:14","218CR0004925","SUSPICIOUS ACTIVITY","SUSPICIOUS ACTIVITY","B ST AND PINION","",""
"02/27/2018","02:42","218CR0004926","DISTURBANCE","CRIMINAL CONTEMPT","531 S MONTANA","ARREST(s) MADE",""
"02/27/2018","06:10","218CR0004927","DISTURBANCE","DISTURBANCE","610 SILVER BOW HOMES","",""
"02/27/2018","07:06","218CR0004928","INFORMATION ONLY","INFORMATION ONLY","","",""
"02/27/2018","07:14","218CR0004929","THEFT","THEFT FROM MOTOR VEHICLE","5100 S WARREN AVE #21","",""
"02/27/2018","07:55","218CR0004930","ACCIDENT","ACCIDENT","700 CASEY ST","",""
"02/27/2018","08:02","218CR0004931","SUSPICIOUS ACTIVITY","BURGLARY, NON-RESIDENCE","MT CON","",""
"02/27/2018","08:33","218CR0004932","TRAFFIC HAZARD","TRAFFIC HAZARD","200 BLK N MONTANA","",""
"02/27/2018","08:43","218CR0004933","CIVIL PAPER SERVICE","CIVIL PAPER SERVICE","23 WELLS","",""
"02/27/2018","09:00","218CR0004934","CIVIL PAPER SERVICE","CIVIL PAPER SERVICE","804 CALEDONIA","",""
"02/27/2018","09:11","218CR0004935","CITIZEN AID","CITIZEN AID","225 N ALASKA","",""
"02/27/2018","09:21","218CR0004936","MEDICAL - EMERGENCY","MEDICAL - EMERGENCY","3755 HARRISON AVE","",""
"02/27/2018","09:35","218CR0004937","LED BUSINESS","LED BUSINESS","155 W GRANITE","",""
"02/27/2018","09:46","218CR0004938","T/S","NO LIABILITY INSURANCE IN EFF.","1900 BLK OREGON","",""
"02/27/2018","10:12","218CR0004939","DOMESTIC ABUSE","DOMESTIC ABUSE","************","",""
"02/27/2018","10:26","218CR0004940","WELFARE CHECK","WELFARE CHECK","3521 S WARREN AVE","",""
"02/27/2018","10:34","218CR0004941","FRAUD","FRAUD","1760 HARRISON AVE","",""
"02/27/2018","10:40","218CR0004943","WELFARE CHECK","WELFARE CHECK","2736 GOODWIN","",""
"02/27/2018","10:45","218CR0004944","INFORMATION ONLY","INFORMATION ONLY","2327 FLORENCE AVE","",""
"02/27/2018","10:49","218CR0004945","INFORMATION ONLY","INFORMATION ONLY","","",""
"02/27/2018","10:55","218CR0004946","JUVENILE MISC","JUVENILE MISC","************","",""
"02/27/2018","11:03","218CR0004947","CIVIL STANDBY","CIVIL STANDBY","2501 PARROT","",""
"02/27/2018","11:05","218CR0004948","JUVENILE MISC","JUVENILE MISC","************","",""
"02/27/2018","11:46","218CR0004950","THEFT","THEFT, ALL OTHERS","1457 SUNRISE","",""
"02/27/2018","11:46","218CR0004951","WELFARE CHECK","WELFARE CHECK","2036 LOCUST","",""
"02/27/2018","11:52","218CR0004952","T/S","T/S @ TEXAS AND GRAND","TEXAS AND GRAND","",""
"02/27/2018","12:07","218CR0004954","TRAFFIC HAZARD","TRAFFIC HAZARD","700 BLK N WYOMING","",""
"02/27/2018","12:12","218CR0004955","ASSIST OTHER AGENCY","ASSIST OTHER AGENCY","I15 NB MM 158","",""
"02/27/2018","12:30","218CR0004957","CIVIL PAPER SERVICE","CIVIL PAPER SERVICE","3220 HANNIBAL","",""
"02/27/2018","12:32","218CR0004958","THEFT","THEFT","62 W BROADWAY","",""
"02/27/2018","12:43","218CR0004959","SUSPICIOUS ACTIVITY","SUSPICIOUS ACTIVITY","2975 WASHOE YMCA","",""
"02/27/2018","12:43","218CR0004960","SUSPICIOUS ACTIVITY","SUSPICIOUS ACTIVITY","","",""
"02/27/2018","12:45","218CR0004961","T/S","OPERATING WITHOUT CURRENT REGI","MONROE AND MARCIA","",""
"02/27/2018","12:56","218CR0004962","T/S","T/S","MONTANA AND PORPHYRY","",""
"02/27/2018","13:09","218CR0004963","SUSPICIOUS ACTIVITY","SUSPICIOUS ACTIVITY","2500 BLK OTTAWA ST","",""
"02/27/2018","13:25","218CR0004964","LED BUSINESS","LED BUSINESS","225 N ALASKA","",""
"02/27/2018","13:34","218CR0004965","MAN WITH A GUN","MAN WITH A GUN","************","",""
"02/27/2018","13:45","218CR0004966","ALL OTHER","ALL OTHER","225 N ALASKA","",""
"02/27/2018","13:47","218CR0004967","INFORMATION ONLY","ELDER ABUSE","100 GARDENS WY","",""
"02/27/2018","13:59","218CR0004968","JUVENILE MISC","JUVENILE MISC","************","",""
"02/27/2018","14:10","218CR0004969","ACCIDENT","ACCIDENT","FRONT ST AND MONTANA ST","",""
"02/27/2018","14:14","218CR0004970","ACCIDENT","ACCIDENT","109 STANDBY CREEK ROAD","",""
"02/27/2018","14:33","218CR0004971","WELFARE CHECK","WELFARE CHECK","804 CALEDONIA ST","",""
"02/27/2018","14:47","218CR0004972","ACCIDENT - INJURY","ACCIDENT - INJURY","IRON AND TRAVONIA","",""
"02/27/2018","15:09","218CR0004973","TRAFFIC HAZARD","TRAFFIC HAZARD","ROSEVELT AND BUSCH ST","",""
"02/27/2018","15:22","218CR0004974","T/S","T/S @ COBBAN ST AND CAROLINA ST","COBBAN ST AND CAROLINA ST","",""
"02/27/2018","15:51","218CR0004975","ALL OTHER","ALL OTHER","225 N ALASKA","",""
"02/27/2018","15:52","218CR0004976","T/S","T/S @ OREGON AVE AND A ST","OREGON AVE AND A ST","",""
"02/27/2018","16:06","218CR0004977","FIRE- GAS ODOR","FIRE- GAS ODOR","1950 DEWEY BLVD","",""
"02/27/2018","16:14","218CR0004978","SUSPICIOUS ACTIVITY","POSSESSION OF DANGEROUS DRUGS","MISSOULA AVE AND 5TH ST","ARREST(s) MADE",""
"02/27/2018","16:29","218CR0004979","DISTURBANCE","DISTURBANCE","429 W IRON APT B","",""
"02/27/2018","16:40","218CR0004980","T/S","T/S @ 1301 HARRISON AVE","1301 HARRISON AVE","",""
"02/27/2018","16:54","218CR0004981","STOLEN VEHICLE","MOTOR VEHICLE THEFT","10 S WYOMING","",""
"02/27/2018","17:47","218CR0004982","INFORMATION ONLY","INFORMATION ONLY","","",""
"02/27/2018","18:35","218CR0004983","ALARM - MEDICAL","ALARM - MEDICAL","************","",""
"02/27/2018","18:39","218CR0004984","WELFARE CHECK","WELFARE CHECK","1255 CALEDONIA ST","",""
"02/27/2018","18:57","218CR0004985","THEFT","THEFT OF VEHICLE PARTS/ACCESSO","452 N IDAHO","",""
"02/27/2018","19:36","218CR0004987","MEDICAL - EMERGENCY","MEDICAL - EMERGENCY","2660 COLUSA","",""
"02/27/2018","19:36","218CR0004986","T/S","T/S @ MADISON AND SHEILDS","MADISON AND SHEILDS","",""
"02/27/2018","19:46","218CR0004988","ALARM - BURGLARY","ALARM - BURGLARY","************","",""
"02/27/2018","19:49","218CR0004989","ALARM - BURGLARY","ALARM - BURGLARY","************","",""
"02/27/2018","19:57","218CR0004990","SUICIDE ATTEMPT/THREAT","SUICIDE ATTEMPT/THREAT","************","",""
"02/27/2018","20:10","218CR0004991","THEFT","THEFT","1865 DEWEY BLVD","",""
"02/27/2018","20:13","218CR0004992","ALARM - BURGLARY","ALARM - BURGLARY","************","",""
"02/27/2018","20:15","218CR0004993","SUSPICIOUS ACTIVITY","SUSPICIOUS ACTIVITY","675 S MONTANA ST","",""
"02/27/2018","20:18","218CR0004994","ALARM - BURGLARY","ALARM - BURGLARY","************","",""
"02/27/2018","20:47","218CR0004995","T/S","T/S @ MONTANA ST AND IRON ST","MONTANA ST AND IRON ST","",""
"02/27/2018","21:06","218CR0004996","ACCIDENT","ACCIDENT","I15 MM98 SBND","",""
"02/27/2018","21:48","218CR0004997","ATL","ATL","3800 BLK HARRISON AVE","",""
"02/27/2018","22:18","218CR0004998","SUSPICIOUS ACTIVITY","SUSPICIOUS ACTIVITY","3400 BLK PAXSON","",""
"02/27/2018","22:20","218CR0004999","ALARM-DURESS","ALARM-DURESS","************","",""
"02/27/2018","23:02","218CR0005001","BUSINESS CHECK","BUSINESS CHECK","1915 DEWEY","",""
"02/27/2018","23:20","218CR0005002","BUSINESS CHECK","BUSINESS CHECK","1915 DEWEY","",""
"02/27/2018","23:50","218CR0005003","ASSAULT","ASSAULT, SIMPLE","3745 HARRISON AVE","ARREST(s) MADE",""
"02/27/2018","23:56","218CR0005004","HARASSMENT","HARASSMENT","605 W QUARTZ","",""
"02/27/2018","23:57","218CR0005005","SUSPICIOUS ACTIVITY","SUSPICIOUS ACTIVITY","13 SUNVIEW TERRACE","",""
"02/28/2018","00:02","218CR0005006","ASSAULT","ASSAULT","************","",""
"02/28/2018","00:07","218CR0005007","MAN WITH A GUN","MAN WITH A GUN","************","",""
"02/28/2018","00:17","218CR0005008","ACCIDENT","IMMEDIATE NOTIFICATION OF ACC","420 S IDAHO","",""
"02/28/2018","00:32","218CR0005009","MAN WITH A GUN","MAN WITH A GUN","************","",""
"02/28/2018","00:36","218CR0005010","MEDICAL - ASSIST","MEDICAL - ASSIST","************","",""
"02/28/2018","00:37","218CR0005011","ATL","ATL","24 E COPPER HAYES MORRIS HSE","",""
"02/28/2018","00:51","218CR0005012","SUSPICIOUS ACTIVITY","SUSPICIOUS ACTIVITY","5101 S WARREN AVE","",""
"02/28/2018","01:21","218CR0005013","CITIZEN AID","CITIZEN AID","DAKOTA AND FRONT","",""
"02/28/2018","01:41","218CR0005014","ATL","ATL","CONTINENTAL DR AND HANNIBAL ST","",""
"02/28/2018","01:52","218CR0005015","SUSPICIOUS ACTIVITY","SUSPICIOUS ACTIVITY","C/O MCDC 2500 CONTINENTAL DR","",""
"02/28/2018","03:10","218CR0005016","SUSPICIOUS ACTIVITY","SUSPICIOUS ACTIVITY","26 LAIRD","",""
"02/28/2018","04:00","218CR0005017","SUICIDE ATTEMPT/THREAT","SUICIDE ATTEMPT/THREAT","************","",""
"02/28/2018","04:04","218CR0005018","DOMESTIC ABUSE","DOMESTIC ABUSE","************","",""
"02/28/2018","05:34","218CR0005019","MEDICAL - EMERGENCY","MEDICAL - EMERGENCY","725 S DAKOTA","",""
"02/28/2018","05:35","218CR0005020","SUSPICIOUS ACTIVITY","SUSPICIOUS ACTIVITY","COLUMBUS PLAZA 700","",""
"02/28/2018","05:49","218CR0005021","CITIZEN AID","CITIZEN AID","714 E SECOND","",""
"02/28/2018","06:50","218CR0005023","SUSPICIOUS ACTIVITY","SUSPICIOUS ACTIVITY","840 S MONTANA","",""
"02/28/2018","06:54","218CR0005024","MEDICAL - EMERGENCY","MEDICAL - EMERGENCY","634 W BROADWAY","",""
"02/28/2018","07:11","218CR0005025","THEFT","THEFT","4701 HARRISON AVE","",""
"02/28/2018","07:25","218CR0005026","MEDICAL - EMERGENCY","MEDICAL - EMERGENCY","2028 CALIFORNIA","",""
"02/28/2018","07:26","218CR0005027","SUSPICIOUS ACTIVITY","SUSPICIOUS ACTIVITY","2900 BLK HARRISON","",""
"02/28/2018","07:44","218CR0005028","T/S","T/S @ 3000 BLK CONTINENTIAL DR","3000 BLK CONTINENTIAL DR","",""
 

BSB police reports ending February 26, 2018

"02/23/2018","00:01","218CR0004588","ALL OTHER","ALL OTHER","1504 LEGION OASIS","",""
"02/23/2018","00:34","218CR0004589","T/S","T/S","HARRISON AND GEORGE","",""
"02/23/2018","00:58","218CR0004590","T/S","T/S","GARLAND AND HARRISON","",""
"02/23/2018","01:28","218CR0004591","T/S","T/S","MONTANA ST AND IRON","",""
"02/23/2018","01:31","218CR0004592","SUSPICIOUS ACTIVITY","SUSPICIOUS ACTIVITY","3939 HARRISON AVE","",""
"02/23/2018","01:46","218CR0004593","T/S","POSSESSION OF DANGEROUS DRUGS","CALIFORNIA AND CASEY","ARREST(s) MADE",""
"02/23/2018","02:08","218CR0004594","T/S","T/S","HARRISON AND ELIZ WARREN","",""
"02/23/2018","02:14","218CR0004595","TRAFFIC","TRAFFIC","CIVIC CENTER N PARKING LOT","",""
"02/23/2018","02:27","218CR0004596","SUSPICIOUS ACTIVITY","DUI - (REFUSAL)","122000 BLK BROWNS GLCH RD","ARREST(s) MADE",""
"02/23/2018","03:15","218CR0004597","CITIZEN AID","CITIZEN AID","612 TRAVONIA ST","",""
"02/23/2018","03:17","218CR0004598","TRAFFIC HAZARD","TRAFFIC HAZARD","KAW AND HOBSON","",""
"02/23/2018","03:45","218CR0004599","BUSINESS CHECK","BUSINESS CHECK","3700 HARRISON AVE","",""
"02/23/2018","04:09","218CR0004600","WELFARE CHECK","WELFARE CHECK","508 SILVERBOW HOMES","",""
"02/23/2018","04:52","218CR0004601","MEDICAL - EMERGENCY","MEDICAL - EMERGENCY","I15 MM 137 SB","",""
"02/23/2018","06:34","218CR0004602","HIT AND RUN","CRIMINAL MISCHIEF","2401 CONTINENTAL DR","",""
"02/23/2018","06:55","218CR0004603","ALARM - BURGLARY","ALARM - BURGLARY","************","",""
"02/23/2018","07:25","218CR0004604","ABANDONED VEHICLE","ABANDONED VEHICLE","918 W COPPER ST","",""
"02/23/2018","07:56","218CR0004605","CIVIL PAPER SERVICE","CIVIL PAPER SERVICE","201 HOBSON #9","",""
"02/23/2018","08:21","218CR0004606","CIVIL PAPER SERVICE","CIVIL PAPER SERVICE","715 ZARELDA","",""
"02/23/2018","08:47","218CR0004607","FOUND PROPERTY","FOUND PROPERTY","************","",""
"02/23/2018","09:09","218CR0004609","ASSIST OTHER AGENCY","ASSIST OTHER AGENCY","2015 WALNUT ST","",""
"02/23/2018","09:19","218CR0004610","CIVIL STANDBY","CIVIL STANDBY","1911 PORTER","",""
"02/23/2018","10:06","218CR0004612","SUSPICIOUS ACTIVITY","SUSPICIOUS ACTIVITY","615 W SILVER","",""
"02/23/2018","10:11","218CR0004613","HARASSMENT","HARASSMENT","2100 CONTINENTAL","",""
"02/23/2018","10:18","218CR0004614","WELFARE CHECK","WELFARE CHECK","500 BLK S IDAHO","",""
"02/23/2018","10:34","218CR0004615","TRAFFIC HAZARD","TRAFFIC HAZARD","500 BLK S MONTANA","",""
"02/23/2018","11:22","218CR0004616","CIVIL STANDBY","CIVIL STANDBY","1036 PLACER ST","",""
"02/23/2018","11:38","218CR0004617","WELFARE CHECK","WELFARE CHECK","2931 FLORAL BLVD","",""
"02/23/2018","12:10","218CR0004618","INTIMIDATION","INTIMIDATION","1631 SAMPSON ST","",""
"02/23/2018","12:15","218CR0004619","ASSIST OTHER AGENCY","POSSESSION OF DANGEROUS DRUGS","213 S WASHINGTON","ARREST(s) MADE",""
"02/23/2018","12:24","218CR0004620","T/S","T/S @ GRANITE AND MONTANA","GRANITE AND MONTANA","",""
"02/23/2018","12:29","218CR0004621","MEDICAL - EMERGENCY","MEDICAL - EMERGENCY","910 EVANS #A2","",""
"02/23/2018","12:39","218CR0004622","THEFT","BURGLARY, RESIDENCE","2710 YALE AVE","",""
"02/23/2018","13:08","218CR0004623","VANDALISM/CRIMINAL MISCHIEF","VANDALISM/CRIMINAL MISCHIEF","4937 HOPE RD","",""
"02/23/2018","13:21","218CR0004624","UNWANTED PERSON","UNWANTED PERSON","************","",""
"02/23/2018","13:26","218CR0004625","THEFT","FORGERY/COUNTERFEIT","949 WAUKESHA ST","",""
"02/23/2018","13:31","218CR0004626","T/S","T/S @ DEWEY AND HARRISON","DEWEY AND HARRISON","",""
"02/23/2018","13:36","218CR0004627","ACCIDENT","ACCIDENT","525 S COLORADO","",""
"02/23/2018","13:41","218CR0004628","SNOW REMOVAL COMPLAINT","SNOW REMOVAL COMPLAINT","1300 BLK SUNSET","",""
"02/23/2018","13:57","218CR0004629","VANDALISM/CRIMINAL MISCHIEF","CRIMINAL MISCHIEF","1801 ADAMS","",""
"02/23/2018","14:00","218CR0004630","SUSPICIOUS ACTIVITY","SUSPICIOUS ACTIVITY","N JACKSON AND CALEDONIA","",""
"02/23/2018","15:20","218CR0004631","WANTED PERSON","WANTED PERSON","************","",""
"02/23/2018","15:24","218CR0004632","T/S","T/S","HOWARD ST AND ELIZABETH WARREN","",""
"02/23/2018","15:37","218CR0004633","T/S","T/S","WEBSTER GARFIELD SCHOOL","",""
"02/23/2018","15:45","218CR0004635","CITIZEN AID","CITIZEN AID","225 N ALASKA","",""
"02/23/2018","15:50","218CR0004636","MEDICAL - EMERGENCY","MEDICAL - EMERGENCY","1118 W GOLD","",""
"02/23/2018","15:54","218CR0004637","CRIMINAL TRESPASS","CRIMINAL TRESPASS TO PROPERTY","953 S ROCKER ROAD","",""
"02/23/2018","15:55","218CR0004638","DISTURBANCE","DISTURBANCE","2921 BUSCH ST","",""
"02/23/2018","16:00","218CR0004639","ANIMAL COMPLAINT","ANIMAL COMPLAINT","3540 HARRISON MONTANA CLUB","",""
"02/23/2018","16:17","218CR0004640","WANTED PERSON","WANTED PERSON","************","",""
"02/23/2018","16:31","218CR0004641","ACCIDENT","ACCIDENT","700 E FRONT ST","",""
"02/23/2018","16:36","218CR0004642","ACCIDENT","ACCIDENT","2119 AMHERST","",""
"02/23/2018","17:00","218CR0004643","JUVENILE MISC","JUVENILE MISC","************","",""
"02/23/2018","17:07","218CR0004644","T/S","DRIVE WHILE SUSP. OR REVOKED","FARRELL ST AND HOWARD ST","ARREST(s) MADE",""
"02/23/2018","17:10","218CR0004645","T/S","T/S","820 DEWEY BLVD/WESTERN MEATS","",""
"02/23/2018","17:23","218CR0004646","ALL OTHER","ALL OTHER","GRANITE AND EXCELSIOR","",""
"02/23/2018","17:24","218CR0004647","ALARM - BURGLARY","ALARM - BURGLARY","************","",""
"02/23/2018","17:33","218CR0004648","T/S","T/S @ MONTANA AND GOLD","MONTANA AND GOLD","",""
"02/23/2018","17:34","218CR0004649","ALARM - BURGLARY","ALARM - BURGLARY","************","",""
"02/23/2018","17:41","218CR0004650","T/S","T/S @ MONTANA ST AND ALUMINUM ST","MONTANA ST AND ALUMINUM ST","",""
"02/23/2018","17:55","218CR0004651","T/S","T/S @ TECUMSEH AND MONTANA","TECUMSEH AND MONTANA","",""
"02/23/2018","18:04","218CR0004652","SUSPICIOUS ACTIVITY","SUSPICIOUS ACTIVITY","1257 S ROCKER RD","",""
"02/23/2018","18:05","218CR0004653","PARKING COMPLAINT","PARKING COMPLAINT","SECOND ST AND COLORADO","",""
"02/23/2018","18:31","218CR0004654","ALL OTHER","ASSAULT, SIMPLE","2617 WALNUT","",""
"02/23/2018","18:39","218CR0004655","THEFT","THEFT","1006 DELAWARE","",""
"02/23/2018","18:43","218CR0004656","ALARM - BURGLARY","ALARM - BURGLARY","************","",""
"02/23/2018","19:07","218CR0004657","T/S","T/S @ HARRISON AND ARGYLE","HARRISON AND ARGYLE","",""
"02/23/2018","19:11","218CR0004658","T/S","T/S","HARRISON AND MAJORS","",""
"02/23/2018","19:18","218CR0004659","ALL OTHER","ALL OTHER","2050 BEEF TRAIL RD","",""
"02/23/2018","19:27","218CR0004660","T/S","T/S @ MONTANA ST AND ALUMINUM ST","MONTANA ST AND ALUMINUM ST","",""
"02/23/2018","19:33","218CR0004661","STOLEN VEHICLE","UNAUTHORIZED USE OF MOTOR VEH","910 EVANS # E6","",""
"02/23/2018","19:36","218CR0004662","ACCIDENT","ACCIDENT","GALENA AND IDAHO","",""
"02/23/2018","19:38","218CR0004663","MEDICAL - EMERGENCY","MEDICAL - EMERGENCY","605 SILVERBOW HOMES","",""
"02/23/2018","19:54","218CR0004664","T/S","POSSESS ALCOHOL OR INTOXICANT","HARRISON AND MARCIA","ARREST(s) MADE",""
"02/23/2018","20:06","218CR0004665","BUSINESS CHECK","BUSINESS CHECK","531 S MONTANA","",""
"02/23/2018","20:17","218CR0004666","MEDICAL - EMERGENCY","MEDICAL - EMERGENCY","2421 FLORENCE AVE","",""
"02/23/2018","20:20","218CR0004667","FIRE - OTHER","FIRE - OTHER","161 ORO FINO GULCH RD","",""
"02/23/2018","20:29","218CR0004668","JUVENILE MISC","UNGOVERNABLE JUVENILE","720 W GRANITE","ARREST(s) MADE",""
"02/23/2018","20:42","218CR0004669","MEDICAL - EMERGENCY","MEDICAL - EMERGENCY","3403 PAXSON AVE","",""
"02/23/2018","20:48","218CR0004670","WELFARE CHECK","WELFARE CHECK","1500 CALIFORNIA","",""
"02/23/2018","21:11","218CR0004671","WELFARE CHECK","WELFARE CHECK","2551 PLACER ST","",""
"02/23/2018","21:35","218CR0004672","INFORMATION ONLY","INFORMATION ONLY","","",""
"02/23/2018","21:43","218CR0004673","DISTURBANCE","DISTURBANCE","3108 EDWARDS","",""
"02/23/2018","21:44","218CR0004675","ALARM - FIRE","ALARM - FIRE","3745 HARRISON","",""
"02/23/2018","21:45","218CR0004674","T/S","T/S @ MAIN ST AND GRANITE ST","MAIN ST AND GRANITE ST","",""
"02/23/2018","21:47","218CR0004676","LED BUSINESS","PROTECTIVE CUSTODY","400 S CLARK ST","ARREST(s) MADE",""
"02/23/2018","22:10","218CR0004677","T/S","T/S @ MONTANA AND PORPHYRY","MONTANA AND PORPHYRY","",""
"02/23/2018","22:21","218CR0004678","SUSPICIOUS ACTIVITY","SUSPICIOUS ACTIVITY","1370 HARRISON AVE","",""
"02/23/2018","22:37","218CR0004679","T/S","T/S","ERROR","",""
"02/23/2018","22:38","218CR0004680","SUSPICIOUS ACTIVITY","SUSPICIOUS ACTIVITY","19 CEDAR LAKE DR","",""
"02/23/2018","22:45","218CR0004681","T/S","T/S","400 BLK GREENWOOD AVE","",""
"02/23/2018","22:49","218CR0004682","ALARM - BURGLARY","ALARM - BURGLARY","************","",""
"02/23/2018","23:06","218CR0004683","T/S","T/S @ 3900 BLK HARRISON","3900 BLK HARRISON","",""
"02/23/2018","23:15","218CR0004684","BUSINESS CHECK","BUSINESS CHECK","2711 HARRISON","",""
"02/23/2018","23:18","218CR0004685","BUSINESS CHECK","BUSINESS CHECK","10 BLOCK PARK ST","",""
"02/23/2018","23:21","218CR0004686","JUVENILE MISC","UNGOVERNABLE JUVENILE","BUTTE HIGH SCHOOL","ARREST(s) MADE",""
"02/23/2018","23:25","218CR0004688","SUSPICIOUS ACTIVITY","SUSPICIOUS ACTIVITY","GALENA AND PARK ST","",""
"02/23/2018","23:25","218CR0004687","T/S","T/S","400 BLK N WYOMING","",""
"02/23/2018","23:36","218CR0004689","T/S","T/S","3100 HARRISON BUTTE PLAZA MALL","",""
"02/23/2018","23:36","218CR0004690","SUSPICIOUS ACTIVITY","SUSPICIOUS ACTIVITY","205 S ARIZONA","",""
"02/23/2018","23:40","218CR0004691","T/S","T/S","NEVADA AND 3RD","",""
"02/23/2018","23:47","218CR0004692","SUSPICIOUS ACTIVITY","SUSPICIOUS ACTIVITY","PLATINUM AND UTAH","",""
"02/24/2018","00:01","218CR0004693","SUSPICIOUS ACTIVITY","SUSPICIOUS ACTIVITY","LAQUIINTA","",""
"02/24/2018","00:04","218CR0004694","T/S","T/S","1900 BLK HARRISON AVE","",""
"02/24/2018","00:14","218CR0004695","T/S","T/S","1955 DEWEY BLVD","",""
"02/24/2018","00:19","218CR0004696","CITIZEN AID","CITIZEN AID","SHILOH LANE // MOOSE CR RD","",""
"02/24/2018","00:50","218CR0004697","SUSPICIOUS ACTIVITY","SUSPICIOUS ACTIVITY","HARRISON // CORRAL RD","",""
"02/24/2018","00:53","218CR0004698","MEDICAL - EMERGENCY","MEDICAL - EMERGENCY","2000 THORNTON AVE","",""
"02/24/2018","00:59","218CR0004699","THEFT","THEFT FROM MOTOR VEHICLE","FAIRMONT HOT SPRINGS PARKING L","",""
"02/24/2018","01:07","218CR0004700","T/S","T/S","GRAND AND HARRISON","",""
"02/24/2018","01:19","218CR0004701","BUSINESS CHECK","BUSINESS CHECK","1370 HARRISON","",""
"02/24/2018","01:39","218CR0004702","BUSINESS CHECK","BUSINESS CHECK","905 N EXCELSIOR AVE","",""
"02/24/2018","01:40","218CR0004703","SUSPICIOUS ACTIVITY","SUSPICIOUS ACTIVITY","1000 S EXCELSIOR AVE","",""
"02/24/2018","01:50","218CR0004704","UNWANTED PERSON","UNWANTED PERSON","************","",""
"02/24/2018","02:00","218CR0004705","INTOXICATED PERSON","INTOXICATED PERSON","541 S MAIN ST","",""
"02/24/2018","02:25","218CR0004706","SUSPICIOUS ACTIVITY","SUSPICIOUS ACTIVITY","MAIN AND PORPHYRY","",""
"02/24/2018","02:45","218CR0004707","ALARM - BURGLARY","ALARM - BURGLARY","************","",""
"02/24/2018","02:50","218CR0004708","SUSPICIOUS ACTIVITY","SUSPICIOUS ACTIVITY","HOLMES AND HANSEN","",""
"02/24/2018","03:01","218CR0004709","T/S","T/S","100 BLK CALHOUN","",""
"02/24/2018","03:12","218CR0004710","SUSPICIOUS ACTIVITY","DRIVE WHILE SUSP. OR REVOKED","3605 HARRISON AARONS","ARREST(s) MADE",""
"02/24/2018","03:20","218CR0004711","SUSPICIOUS ACTIVITY","SUSPICIOUS ACTIVITY","GALENA AND IDAHO","",""
"02/24/2018","03:37","218CR0004712","BUSINESS CHECK","BUSINESS CHECK","531 S MONTANA ST","",""
"02/24/2018","04:17","218CR0004713","MEDICAL - EMERGENCY","MEDICAL - EMERGENCY","901 E FRONT","",""
"02/24/2018","04:41","218CR0004714","SUSPICIOUS ACTIVITY","SUSPICIOUS ACTIVITY","3937 HARRISON AVE","",""
"02/24/2018","06:19","218CR0004715","LED BUSINESS","LED BUSINESS","","",""
"02/24/2018","08:18","218CR0004716","BURGLARY","BURGLARY, RESIDENCE","1521 BEACON RD","",""
"02/24/2018","10:07","218CR0004719","CIVIL PAPER SERVICE","CIVIL PAPER SERVICE","223 N EXCELSIOR AVE","",""
"02/24/2018","10:51","218CR0004720","UNKNOWN PROBLEM","UNKNOWN PROBLEM","1957 S ARIZONA ST","",""
"02/24/2018","11:23","218CR0004721","LOST OR STOLEN PROPERTY","LOST OR STOLEN PROPERTY","PARK ST AND MAIN ST","",""
"02/24/2018","12:26","218CR0004722","T/S","T/S","MERCURY AND MONTANA","",""
"02/24/2018","13:00","218CR0004723","T/S","T/S","GRAND AND TEXAS","",""
"02/24/2018","13:32","218CR0004724","THEFT","THEFT, ALL OTHERS","128 RAMPART","",""
"02/24/2018","14:04","218CR0004725","T/S","T/S","HARRISON AND AMHERST","",""
"02/24/2018","14:17","218CR0004726","T/S","T/S","HARVARD AND HARRISON","",""
"02/24/2018","14:20","218CR0004727","ATL","ATL","2939 HARRISON AVE","",""
"02/24/2018","14:54","218CR0004729","MEDICAL - EMERGENCY","MEDICAL - EMERGENCY","LASALLE AND FRANKLIN","",""
"02/24/2018","15:25","218CR0004730","SUSPICIOUS ACTIVITY","SUSPICIOUS ACTIVITY","3110 ARGYLE ST","",""
"02/24/2018","15:32","218CR0004731","T/S","T/S","PLATINUM AND EXCELSIOR","",""
"02/24/2018","16:00","218CR0004732","SUSPICIOUS ACTIVITY","SUSPICIOUS ACTIVITY","ALUMINUM AND IDAHO","",""
"02/24/2018","16:27","218CR0004733","MEDICAL - EMERGENCY","MEDICAL - EMERGENCY","2320 AMHERST AV","",""
"02/24/2018","16:31","218CR0004734","T/S","OPERATING WITHOUT CURRENT REGI","GILMAN ST AND HARRISON AVE","",""
"02/24/2018","16:41","218CR0004735","THEFT","BURGLARY, RESIDENCE","903 NEVADA","",""
"02/24/2018","16:43","218CR0004736","ASSIST OTHER AGENCY","ASSIST OTHER AGENCY","I15 MM 143 NB","",""
"02/24/2018","17:12","218CR0004737","THEFT","THEFT, ALL OTHERS","229 S WASHINGTON","ARREST(s) MADE",""
"02/24/2018","17:32","218CR0004738","T/S","T/S","","",""
"02/24/2018","17:56","218CR0004739","ALL OTHER","POSSESSION OF DANGEROUS DRUGS","330 W GOLD","ARREST(s) MADE",""
"02/24/2018","18:08","218CR0004740","ASSAULT","ASSAULT, SIMPLE","3001 HARRISON","",""
"02/24/2018","18:21","218CR0004741","MEDICAL - EMERGENCY","MEDICAL - EMERGENCY","314 S WASHINGTON","",""
"02/24/2018","18:40","218CR0004742","HARASSMENT","HARASSMENT","1119 E SECOND","",""
"02/24/2018","19:05","218CR0004743","THEFT","THEFT","","",""
"02/24/2018","19:15","218CR0004744","MEDICAL - EMERGENCY","MEDICAL - EMERGENCY","2920 LOCUST ST","",""
"02/24/2018","19:19","218CR0004745","T/S","T/S","HARRISON AVE AND NOYES","",""
"02/24/2018","19:19","218CR0004746","ASSIST OTHER AGENCY","ASSIST OTHER AGENCY","I90 236 EB","",""
"02/24/2018","19:44","218CR0004747","DISTURBANCE","DISTURBANCE","303 W DALY ST","",""
"02/24/2018","20:02","218CR0004748","MEDICAL - EMERGENCY","MEDICAL - EMERGENCY","1208 SILVERBOW HOMES","",""
"02/24/2018","20:12","218CR0004749","UNKNOWN PROBLEM","UNKNOWN PROBLEM","PARK AND EXCELSIOR","",""
"02/24/2018","20:27","218CR0004750","ASSIST OTHER AGENCY","ASSIST OTHER AGENCY","I15 MM 114 NB","",""
"02/24/2018","20:28","218CR0004751","RESTRAINING ORDER VIOLATION","RESISTING ARREST","1804 LAFAYETTE","ARREST(s) MADE",""
"02/24/2018","20:47","218CR0004752","SUSPICIOUS ACTIVITY","SUSPICIOUS ACTIVITY","631 S COLORADO","",""
"02/24/2018","21:30","218CR0004753","MEDICAL - EMERGENCY","MEDICAL - EMERGENCY","155 W QUARTZ","",""
"02/24/2018","22:17","218CR0004754","THEFT","THEFT","229 S WASHINGTON","",""
"02/24/2018","22:17","218CR0004755","T/S","CRIMINAL CONTEMPT","MARCIA AND HARRISON","ARREST(s) MADE",""
"02/24/2018","22:40","218CR0004756","T/S","T/S","PAXSON ST AND HOLMES AVE","",""
"02/24/2018","23:11","218CR0004757","BUSINESS CHECK","BUSINESS CHECK","2711 HARRISON","",""
"02/24/2018","23:35","218CR0004758","T/S","T/S @ DEWEY AND LEXINGTON","DEWEY AND LEXINGTON","",""
"02/24/2018","23:45","218CR0004759","BUSINESS CHECK","BUSINESS CHECK","1370 HARRISON","",""
"02/24/2018","23:54","218CR0004760","BUSINESS CHECK","BUSINESS CHECK","531 S MONTANA","",""
"02/24/2018","23:58","218CR0004761","ALL OTHER","ALL OTHER","2609 HARRISON","",""
"02/25/2018","00:06","218CR0004762","T/S","NO LIABILITY INSURANCE IN EFF.","1301 HARRISON","",""
"02/25/2018","00:10","218CR0004763","SUSPICIOUS ACTIVITY","SUSPICIOUS ACTIVITY","CIVIC CENTER AND TEXAS","",""
"02/25/2018","00:14","218CR0004764","T/S","T/S","SHIELDS AND GARDEN","",""
"02/25/2018","00:42","218CR0004765","PROWLER","PROWLER","900 W QUARTZ","",""
"02/25/2018","00:56","218CR0004766","SUSPICIOUS ACTIVITY","POSSESSION OF DANGEROUS DRUGS","MT CON MINE PARKING LOT","ARREST(s) MADE",""
"02/25/2018","01:54","218CR0004767","SUSPICIOUS ACTIVITY","SUSPICIOUS ACTIVITY","304 N MAIN","",""
"02/25/2018","02:11","218CR0004768","HIT AND RUN","HIT AND RUN","2 E GALENA","",""
"02/25/2018","02:24","218CR0004769","MEDICAL - EMERGENCY","MEDICAL - EMERGENCY","540 MINNESOTA","",""
"02/25/2018","02:38","218CR0004770","UNWANTED PERSON","UNWANTED PERSON","************","",""
"02/25/2018","02:50","218CR0004771","JUVENILE RUNAWAY","JUVENILE RUNAWAY","************","",""
"02/25/2018","03:24","218CR0004772","ASSIST OTHER AGENCY","ASSIST OTHER AGENCY","I 90 MM 240 E BOUND","",""
"02/25/2018","03:49","218CR0004773","SUSPICIOUS ACTIVITY","SUSPICIOUS ACTIVITY","3220 EVANS","",""
"02/25/2018","03:50","218CR0004774","MEDICAL - EMERGENCY","MEDICAL - EMERGENCY","705 SILVERBOW HOMES","",""
"02/25/2018","04:03","218CR0004775","PROWLER","PROWLER","109 S EXCELSIOR","",""
"02/25/2018","04:10","218CR0004776","MEDICAL - EMERGENCY","MEDICAL - EMERGENCY","2704 SILVERBOW BLVD","",""
"02/25/2018","04:32","218CR0004777","ALL OTHER","ALL OTHER","JEFFERSON COUNTY","",""
"02/25/2018","05:57","218CR0004778","SUSPICIOUS ACTIVITY","SUSPICIOUS ACTIVITY","2019 JOHNS","",""
"02/25/2018","06:15","218CR0004779","ASSAULT","ASSAULT WITH BODILY FLUID","400 S CLARK ST","",""
"02/25/2018","07:52","218CR0004780","OPEN BUILDING","OPEN BUILDING","2606 OTTAWA","",""
"02/25/2018","08:37","218CR0004781","ALARM - BURGLARY","ALARM - BURGLARY","************","",""
"02/25/2018","08:53","218CR0004782","CIVIL PAPER SERVICE","CIVIL PAPER SERVICE","1913 S MONTANA","",""
"02/25/2018","08:58","218CR0004783","CIVIL PAPER SERVICE","CIVIL PAPER SERVICE","724 PLACER ST","",""
"02/25/2018","09:05","218CR0004784","TRAFFIC HAZARD","TRAFFIC HAZARD","1200 BLK CALEDONIA","",""
"02/25/2018","09:08","218CR0004785","ALARM - ROBBERY","ALARM - ROBBERY","2227 HARRISON AVE","",""
"02/25/2018","10:18","218CR0004786","WELFARE CHECK","WELFARE CHECK","100 GARDENS WAY #147","",""
"02/25/2018","10:50","218CR0004787","ALARM - BURGLARY","ALARM - BURGLARY","************","",""
"02/25/2018","11:05","218CR0004788","MEDICAL - EMERGENCY","MEDICAL - EMERGENCY","1408 SILVER BOW HOMES","",""
"02/25/2018","11:17","218CR0004789","MEDICAL - EMERGENCY","MEDICAL - EMERGENCY","708 S WASHINGTON","",""
"02/25/2018","11:39","218CR0004790","FRAUD","FRAUD","2550 MOULTON","",""
"02/25/2018","12:11","218CR0004791","SUICIDE ATTEMPT/THREAT","SUICIDE ATTEMPT/THREAT","************","",""
"02/25/2018","12:59","218CR0004792","THEFT","THEFT, ALL OTHERS","225 N ALASKA","ARREST(s) MADE",""
"02/25/2018","13:14","218CR0004793","ATL","ATL","GRAND AND TEXAS","",""
"02/25/2018","14:54","218CR0004794","ASSIST OTHER AGENCY","ASSIST OTHER AGENCY","1302 E SECOND ST","",""
"02/25/2018","15:08","218CR0004795","DISTURBANCE","CRIMINAL ENDANGERMENT","310 W FRONT","",""
"02/25/2018","15:12","218CR0004796","MEDICAL - EMERGENCY","MEDICAL - EMERGENCY","230 S WASHINGTON #201","",""
"02/25/2018","15:41","218CR0004797","ACCIDENT","ACCIDENT","3100 HARRISON AVE","",""
"02/25/2018","16:02","218CR0004798","T/S","DRIVE WHILE SUSP. OR REVOKED","PLATINUM ST AND MONTANA ST","",""
"02/25/2018","16:17","218CR0004799","ALL OTHER","CRIMINAL MISCHIEF","251 CHIPMUNK WAY","",""
"02/25/2018","16:19","218CR0004800","ATL","ATL","FRONT AND HARRISON","",""
"02/25/2018","16:20","218CR0004801","ALL OTHER","ALL OTHER","225 N ALASKA","",""
"02/25/2018","16:30","218CR0004802","ASSIST OTHER AGENCY","ASSIST OTHER AGENCY","I90 MM 233 WB","",""
"02/25/2018","16:34","218CR0004803","ASSIST OTHER AGENCY","ASSIST OTHER AGENCY","CONTINENTAL AND ST ANN","",""
"02/25/2018","16:41","218CR0004804","INTOXICATED PERSON","INTOXICATED PERSON","146 W PARK TACO DEL SOL","",""
"02/25/2018","17:20","218CR0004805","SUSPICIOUS ACTIVITY","SUSPICIOUS ACTIVITY","219 S WASHINGTON","",""
"02/25/2018","17:33","218CR0004806","STOLEN VEHICLE","MOTOR VEHICLE THEFT","EAGLES NEST TRAIL","",""
"02/25/2018","17:42","218CR0004807","ALARM - BURGLARY","ALARM - BURGLARY","************","",""
"02/25/2018","17:50","218CR0004808","THEFT","THEFT","737 W PARK","",""
"02/25/2018","18:07","218CR0004809","ALL OTHER","ALL OTHER","2416 S MAIN","",""
"02/25/2018","18:12","218CR0004810","VANDALISM/CRIMINAL MISCHIEF","VANDALISM/CRIMINAL MISCHIEF","21 S DAKOTA ST","",""
"02/25/2018","18:58","218CR0004811","ACCIDENT","ACCIDENT","2521 YALE ST","",""
"02/25/2018","19:07","218CR0004812","ATL","ATL","UPTOWN","",""
"02/25/2018","19:21","218CR0004813","SUSPICIOUS ACTIVITY","SUSPICIOUS ACTIVITY","1515 OREGON APT 802","",""
"02/25/2018","20:17","218CR0004814","ASSAULT","ASSAULT, SIMPLE","1301 HARRISON AVE","ARREST(s) MADE",""
"02/25/2018","20:52","218CR0004815","INTOXICATED PERSON","INTOXICATED PERSON","20 W GALENA","",""
"02/25/2018","21:29","218CR0004816","T/S","NO LIABILITY INSURANCE IN EFF.","MONTANA ST AND ALUMINUM ST","",""
"02/25/2018","22:07","218CR0004817","INTOXICATED PERSON","INTOXICATED PERSON","4701 HARRISON AVE","",""
"02/25/2018","22:37","218CR0004818","T/S","T/S","2053 HARRISON AVE","",""
"02/25/2018","22:56","218CR0004819","BUSINESS CHECK","BUSINESS CHECK","531 S MONTANA","",""
"02/25/2018","23:04","218CR0004820","BUSINESS CHECK","BUSINESS CHECK","2000 DEWEY BLVD DOTTYS CASINO","",""
"02/25/2018","23:07","218CR0004821","SUSPICIOUS ACTIVITY","SUSPICIOUS ACTIVITY","ALUMINUM AND ARIZONA","",""
"02/25/2018","23:18","218CR0004822","BUSINESS CHECK","BUSINESS CHECK","1370 HARRISON","",""
"02/25/2018","23:20","218CR0004823","VANDALISM/CRIMINAL MISCHIEF","CRIMINAL MISCHIEF","603 SILVERBOW HOMES","",""
"02/25/2018","23:34","218CR0004824","SUSPICIOUS ACTIVITY","SUSPICIOUS ACTIVITY","NEVADA AND 3RD","",""
"02/25/2018","23:56","218CR0004825","SUSPICIOUS ACTIVITY","SUSPICIOUS ACTIVITY","50 FORD LANE","",""
"02/26/2018","00:13","218CR0004826","SUSPICIOUS ACTIVITY","SUSPICIOUS ACTIVITY","3100 HARRISON AVE","",""
"02/26/2018","00:20","218CR0004827","T/S","T/S","1900 BLK DEWEY BLVD","",""
"02/26/2018","00:28","218CR0004828","SUSPICIOUS ACTIVITY","SUSPICIOUS ACTIVITY","2809 HARVARD","",""
"02/26/2018","00:43","218CR0004829","WELFARE CHECK","WELFARE CHECK","604 SILVERBOW HOMES","",""
"02/26/2018","00:48","218CR0004830","SUSPICIOUS ACTIVITY","SUSPICIOUS ACTIVITY","ARIZONA AND BROADWAY","",""
"02/26/2018","00:53","218CR0004831","MEDICAL - EMERGENCY","MEDICAL - EMERGENCY","230 S WASHINGTON ST APT 201","",""
"02/26/2018","01:42","218CR0004832","SUSPICIOUS ACTIVITY","SUSPICIOUS ACTIVITY","2100 CORNELL","",""
"02/26/2018","01:51","218CR0004833","BUSINESS CHECK","BUSINESS CHECK","1000 GRIZZLY TRAIL","",""
"02/26/2018","01:55","218CR0004834","T/S","T/S","IRON ST AND WASHINGTON ST","",""
"02/26/2018","02:12","218CR0004835","SUSPICIOUS ACTIVITY","SUSPICIOUS ACTIVITY","GILMAN ST AND HARRISON AVE","",""
"02/26/2018","02:22","218CR0004836","SUSPICIOUS ACTIVITY","SUSPICIOUS ACTIVITY","2340 CORNELL AVE","",""
"02/26/2018","02:30","218CR0004837","ALL OTHER","ALL OTHER","737 W PARK APT 2","",""
"02/26/2018","02:48","218CR0004838","ALARM - BURGLARY","ALARM - BURGLARY","************","",""
"02/26/2018","03:23","218CR0004839","ATL","ATL","AMHERST ST AND HARRISON AVE","",""
"02/26/2018","04:53","218CR0004840","ALL OTHER","ALL OTHER","1800 BLK MEADOWLARK","",""
"02/26/2018","07:12","218CR0004841","T/S","T/S @ 2300 BLK AMHERST","2300 BLK AMHERST","",""
 

Subcategories

Wednesday the 25th. Affiliate Marketing.
Copyright 2012

©